Time,TemperatureF,DewpointF,PressureIn,WindDirection,WindDirectionDegrees,WindSpeedMPH,WindSpeedGustMPH,Humidity,HourlyPrecipIn,Conditions,Clouds,dailyrainin,SoftwareType,DateUTC
2013-01-03 00:02:00,41.1,38.1,30.14,SSE,153,0.0,-999.0,89,0.00,,,0.00,Wunderground v.1.15,2013-01-03 05:02:00,
2013-01-03 00:03:00,41.1,38.4,30.14,SSE,152,0.0,-999.0,90,0.00,,,0.00,Wunderground v.1.15,2013-01-03 05:03:00,
2013-01-03 00:04:00,41.1,38.4,30.14,SSE,152,0.0,-999.0,90,0.00,,,0.00,Wunderground v.1.15,2013-01-03 05:04:00,
2013-01-03 00:05:00,41.1,38.4,30.14,SSE,153,0.0,-999.0,90,0.00,,,0.00,Wunderground v.1.15,2013-01-03 05:05:00,
2013-01-03 00:08:00,41.1,38.4,30.14,SE,126,0.0,-999.0,90,0.00,,,0.00,Wunderground v.1.15,2013-01-03 05:08:00,
2013-01-03 00:09:00,41.1,38.4,30.14,SE,145,1.0,-999.0,90,0.00,,,0.00,Wunderground v.1.15,2013-01-03 05:09:00,
2013-01-03 00:11:00,41.1,38.4,30.14,SSE,158,1.0,-999.0,90,0.00,,,0.00,Wunderground v.1.15,2013-01-03 05:11:00,
2013-01-03 00:14:00,41.0,38.3,30.13,ESE,120,0.0,-999.0,90,0.00,,,0.00,Wunderground v.1.15,2013-01-03 05:14:00,
2013-01-03 00:16:00,41.0,38.3,30.13,ESE,120,0.0,-999.0,90,0.00,,,0.00,Wunderground v.1.15,2013-01-03 05:16:00,
2013-01-03 00:22:00,40.9,38.2,30.14,South,186,0.0,-999.0,90,0.00,,,0.00,Wunderground v.1.15,2013-01-03 05:22:00,
2013-01-03 00:23:00,41.0,38.3,30.14,South,186,0.0,-999.0,90,0.00,,,0.00,Wunderground v.1.15,2013-01-03 05:23:00,
2013-01-03 00:25:00,40.9,38.2,30.15,South,186,0.0,-999.0,90,0.00,,,0.00,Wunderground v.1.15,2013-01-03 05:25:00,
2013-01-03 00:26:00,40.9,38.2,30.14,South,186,0.0,-999.0,90,0.00,,,0.00,Wunderground v.1.15,2013-01-03 05:26:00,
2013-01-03 00:30:00,40.9,38.2,30.14,South,183,0.0,-999.0,90,0.00,,,0.00,Wunderground v.1.15,2013-01-03 05:30:00,
2013-01-03 00:31:00,40.9,38.2,30.14,South,183,0.0,-999.0,90,0.00,,,0.00,Wunderground v.1.15,2013-01-03 05:31:00,
2013-01-03 00:32:00,40.9,38.2,30.14,South,183,0.0,-999.0,90,0.00,,,0.00,Wunderground v.1.15,2013-01-03 05:32:00,
2013-01-03 00:33:00,40.9,38.2,30.14,South,183,0.0,-999.0,90,0.00,,,0.00,Wunderground v.1.15,2013-01-03 05:33:00,
2013-01-03 00:38:00,40.9,38.2,30.14,South,183,0.0,-999.0,90,0.00,,,0.00,Wunderground v.1.15,2013-01-03 05:38:00,
2013-01-03 00:39:00,40.9,38.2,30.14,South,183,0.0,-999.0,90,0.00,,,0.00,Wunderground v.1.15,2013-01-03 05:39:00,
2013-01-03 00:40:00,40.9,38.2,30.14,South,183,0.0,-999.0,90,0.00,,,0.00,Wunderground v.1.15,2013-01-03 05:40:00,
2013-01-03 00:42:00,40.8,38.1,30.14,South,183,0.0,-999.0,90,0.00,,,0.00,Wunderground v.1.15,2013-01-03 05:42:00,
2013-01-03 00:44:00,40.8,38.1,30.14,South,183,0.0,-999.0,90,0.00,,,0.00,Wunderground v.1.15,2013-01-03 05:44:00,
2013-01-03 00:47:00,40.8,38.1,30.14,South,183,0.0,-999.0,90,0.00,,,0.00,Wunderground v.1.15,2013-01-03 05:47:00,
2013-01-03 00:48:00,40.8,38.1,30.13,South,183,0.0,-999.0,90,0.00,,,0.00,Wunderground v.1.15,2013-01-03 05:48:00,
2013-01-03 00:49:00,40.8,38.1,30.13,South,183,0.0,-999.0,90,0.00,,,0.00,Wunderground v.1.15,2013-01-03 05:49:00,
2013-01-03 00:54:00,40.7,38.3,30.12,South,183,0.0,-999.0,91,0.00,,,0.00,Wunderground v.1.15,2013-01-03 05:54:00,
2013-01-03 00:55:00,40.7,38.3,30.12,South,183,0.0,-999.0,91,0.00,,,0.00,Wunderground v.1.15,2013-01-03 05:55:00,
2013-01-03 00:57:00,40.7,38.3,30.13,South,183,0.0,-999.0,91,0.00,,,0.00,Wunderground v.1.15,2013-01-03 05:57:00,
2013-01-03 01:01:00,40.7,38.3,30.12,South,183,0.0,-999.0,91,0.00,,,0.00,Wunderground v.1.15,2013-01-03 06:01:00,
2013-01-03 01:02:00,40.6,38.2,30.12,South,172,0.0,-999.0,91,0.00,,,0.00,Wunderground v.1.15,2013-01-03 06:02:00,
2013-01-03 01:06:00,40.6,38.2,30.12,South,172,0.0,-999.0,91,0.00,,,0.00,Wunderground v.1.15,2013-01-03 06:06:00,
2013-01-03 01:07:00,40.6,38.2,30.12,South,172,0.0,-999.0,91,0.00,,,0.00,Wunderground v.1.15,2013-01-03 06:07:00,
2013-01-03 01:08:00,40.6,38.2,30.12,South,172,0.0,-999.0,91,0.00,,,0.00,Wunderground v.1.15,2013-01-03 06:08:00,
2013-01-03 01:09:00,40.6,38.2,30.12,South,172,0.0,-999.0,91,0.00,,,0.00,Wunderground v.1.15,2013-01-03 06:09:00,
2013-01-03 01:12:00,40.6,38.2,30.11,SSE,149,0.0,-999.0,91,0.00,,,0.00,Wunderground v.1.15,2013-01-03 06:12:00,
2013-01-03 01:14:00,40.6,38.2,30.11,SSE,149,1.0,-999.0,91,0.00,,,0.00,Wunderground v.1.15,2013-01-03 06:14:00,
2013-01-03 01:15:00,40.5,38.1,30.10,SSE,150,0.0,-999.0,91,0.00,,,0.00,Wunderground v.1.15,2013-01-03 06:15:00,
2013-01-03 01:17:00,40.5,38.1,30.10,SSE,150,0.0,-999.0,91,0.00,,,0.00,Wunderground v.1.15,2013-01-03 06:17:00,
2013-01-03 01:19:00,40.5,38.1,30.11,SSE,150,0.0,-999.0,91,0.00,,,0.00,Wunderground v.1.15,2013-01-03 06:19:00,
2013-01-03 01:21:00,40.5,38.1,30.11,SSE,150,0.0,-999.0,91,0.00,,,0.00,Wunderground v.1.15,2013-01-03 06:21:00,
2013-01-03 01:22:00,40.5,38.1,30.11,SSE,159,0.0,-999.0,91,0.00,,,0.00,Wunderground v.1.15,2013-01-03 06:22:00,
2013-01-03 01:25:00,40.5,38.1,30.11,SSE,159,0.0,-999.0,91,0.00,,,0.00,Wunderground v.1.15,2013-01-03 06:25:00,
2013-01-03 01:26:00,40.4,38.0,30.11,SSE,159,0.0,-999.0,91,0.00,,,0.00,Wunderground v.1.15,2013-01-03 06:26:00,
2013-01-03 01:28:00,40.4,38.0,30.10,SSE,159,0.0,-999.0,91,0.00,,,0.00,Wunderground v.1.15,2013-01-03 06:28:00,
2013-01-03 01:31:00,40.4,38.0,30.10,SSE,159,0.0,-999.0,91,0.00,,,0.00,Wunderground v.1.15,2013-01-03 06:31:00,
2013-01-03 01:32:00,40.4,38.0,30.11,SSE,159,0.0,-999.0,91,0.00,,,0.00,Wunderground v.1.15,2013-01-03 06:32:00,
2013-01-03 01:34:00,40.4,38.0,30.11,SSE,159,0.0,-999.0,91,0.00,,,0.00,Wunderground v.1.15,2013-01-03 06:34:00,
2013-01-03 01:36:00,40.4,38.3,30.11,SSE,159,0.0,-999.0,92,0.00,,,0.00,Wunderground v.1.15,2013-01-03 06:36:00,
2013-01-03 01:38:00,40.4,38.3,30.11,SSE,159,0.0,-999.0,92,0.00,,,0.00,Wunderground v.1.15,2013-01-03 06:38:00,
2013-01-03 01:40:00,40.4,38.3,30.12,SSE,159,0.0,-999.0,92,0.00,,,0.00,Wunderground v.1.15,2013-01-03 06:40:00,
2013-01-03 01:42:00,40.4,38.3,30.12,SSE,159,0.0,-999.0,92,0.00,,,0.00,Wunderground v.1.15,2013-01-03 06:42:00,
2013-01-03 01:44:00,40.4,38.3,30.12,SSE,158,0.0,-999.0,92,0.00,,,0.00,Wunderground v.1.15,2013-01-03 06:44:00,
2013-01-03 01:45:00,40.4,38.3,30.12,SSE,159,0.0,-999.0,92,0.00,,,0.00,Wunderground v.1.15,2013-01-03 06:45:00,
2013-01-03 01:47:00,40.4,38.3,30.12,SSE,159,0.0,-999.0,92,0.00,,,0.00,Wunderground v.1.15,2013-01-03 06:47:00,
2013-01-03 01:48:00,40.4,38.3,30.12,SSE,159,0.0,-999.0,92,0.00,,,0.00,Wunderground v.1.15,2013-01-03 06:48:00,
2013-01-03 01:51:00,40.4,38.3,30.11,SSE,158,1.0,-999.0,92,0.00,,,0.00,Wunderground v.1.15,2013-01-03 06:51:00,
2013-01-03 01:54:00,40.4,38.3,30.11,SSE,155,0.0,-999.0,92,0.00,,,0.00,Wunderground v.1.15,2013-01-03 06:54:00,
2013-01-03 01:56:00,40.4,38.3,30.11,SSE,155,0.0,-999.0,92,0.00,,,0.00,Wunderground v.1.15,2013-01-03 06:56:00,
2013-01-03 01:58:00,40.4,38.3,30.11,SSE,155,0.0,-999.0,92,0.00,,,0.00,Wunderground v.1.15,2013-01-03 06:58:00,
2013-01-03 02:00:00,40.4,38.3,30.11,ENE,77,1.0,-999.0,92,0.00,,,0.00,Wunderground v.1.15,2013-01-03 07:00:00,
2013-01-03 02:01:00,40.4,38.3,30.11,ENE,76,0.0,-999.0,92,0.00,,,0.00,Wunderground v.1.15,2013-01-03 07:01:00,
2013-01-03 02:03:00,40.4,38.3,30.11,ENE,76,1.0,-999.0,92,0.00,,,0.00,Wunderground v.1.15,2013-01-03 07:03:00,
2013-01-03 02:05:00,40.4,38.3,30.11,ENE,76,0.0,-999.0,92,0.00,,,0.00,Wunderground v.1.15,2013-01-03 07:05:00,
2013-01-03 02:06:00,40.4,38.3,30.11,ENE,76,0.0,-999.0,92,0.00,,,0.00,Wunderground v.1.15,2013-01-03 07:06:00,
2013-01-03 02:08:00,40.4,38.3,30.11,ENE,76,0.0,-999.0,92,0.00,,,0.00,Wunderground v.1.15,2013-01-03 07:08:00,
2013-01-03 02:10:00,40.4,38.3,30.12,ENE,76,0.0,-999.0,92,0.00,,,0.00,Wunderground v.1.15,2013-01-03 07:10:00,
2013-01-03 02:11:00,40.4,38.3,30.13,ENE,76,0.0,-999.0,92,0.00,,,0.00,Wunderground v.1.15,2013-01-03 07:11:00,
2013-01-03 02:12:00,40.4,38.3,30.13,ENE,76,0.0,-999.0,92,0.00,,,0.00,Wunderground v.1.15,2013-01-03 07:12:00,
2013-01-03 02:13:00,40.4,38.3,30.13,ENE,76,1.0,-999.0,92,0.00,,,0.00,Wunderground v.1.15,2013-01-03 07:13:00,
2013-01-03 02:16:00,40.4,38.3,30.13,ENE,77,0.0,-999.0,92,0.00,,,0.00,Wunderground v.1.15,2013-01-03 07:16:00,
2013-01-03 02:17:00,40.4,38.3,30.13,ENE,76,0.0,-999.0,92,0.00,,,0.00,Wunderground v.1.15,2013-01-03 07:17:00,
2013-01-03 02:18:00,40.4,38.3,30.13,ENE,76,0.0,-999.0,92,0.00,,,0.00,Wunderground v.1.15,2013-01-03 07:18:00,
2013-01-03 02:21:00,40.4,38.3,30.13,ENE,77,0.0,-999.0,92,0.00,,,0.00,Wunderground v.1.15,2013-01-03 07:21:00,
2013-01-03 02:22:00,40.4,38.3,30.13,ENE,76,0.0,-999.0,92,0.00,,,0.00,Wunderground v.1.15,2013-01-03 07:22:00,
2013-01-03 02:24:00,40.4,38.3,30.13,ENE,77,0.0,-999.0,92,0.00,,,0.00,Wunderground v.1.15,2013-01-03 07:24:00,
2013-01-03 02:26:00,40.4,38.3,30.13,ENE,76,0.0,-999.0,92,0.00,,,0.00,Wunderground v.1.15,2013-01-03 07:26:00,
2013-01-03 02:27:00,40.5,38.4,30.13,ENE,77,0.0,-999.0,92,0.00,,,0.00,Wunderground v.1.15,2013-01-03 07:27:00,
2013-01-03 02:29:00,40.5,38.4,30.13,ENE,76,0.0,-999.0,92,0.00,,,0.00,Wunderground v.1.15,2013-01-03 07:29:00,
2013-01-03 02:31:00,40.5,38.4,30.14,ENE,76,1.0,-999.0,92,0.00,,,0.00,Wunderground v.1.15,2013-01-03 07:31:00,
2013-01-03 02:32:00,40.5,38.4,30.14,ENE,76,0.0,-999.0,92,0.00,,,0.00,Wunderground v.1.15,2013-01-03 07:32:00,
2013-01-03 02:34:00,40.5,38.4,30.14,ENE,77,0.0,-999.0,92,0.00,,,0.00,Wunderground v.1.15,2013-01-03 07:34:00,
2013-01-03 02:36:00,40.5,38.4,30.14,ENE,77,0.0,-999.0,92,0.00,,,0.00,Wunderground v.1.15,2013-01-03 07:36:00,
2013-01-03 02:37:00,40.5,38.4,30.14,ENE,76,1.0,-999.0,92,0.00,,,0.00,Wunderground v.1.15,2013-01-03 07:37:00,
2013-01-03 02:39:00,40.5,38.4,30.14,ENE,76,1.0,-999.0,92,0.00,,,0.00,Wunderground v.1.15,2013-01-03 07:39:00,
2013-01-03 02:42:00,40.5,38.4,30.14,ENE,76,1.0,-999.0,92,0.00,,,0.00,Wunderground v.1.15,2013-01-03 07:42:00,
2013-01-03 02:44:00,40.5,38.1,30.14,ENE,76,0.0,-999.0,91,0.00,,,0.00,Wunderground v.1.15,2013-01-03 07:44:00,
2013-01-03 02:47:00,40.5,38.1,30.14,ENE,75,0.0,-999.0,91,0.00,,,0.00,Wunderground v.1.15,2013-01-03 07:47:00,
2013-01-03 02:49:00,40.5,38.1,30.14,ENE,75,0.0,-999.0,91,0.00,,,0.00,Wunderground v.1.15,2013-01-03 07:49:00,
2013-01-03 02:52:00,40.5,38.1,30.14,ENE,75,0.0,-999.0,91,0.00,,,0.00,Wunderground v.1.15,2013-01-03 07:52:00,
2013-01-03 02:54:00,40.4,38.0,30.14,ENE,75,1.0,-999.0,91,0.00,,,0.00,Wunderground v.1.15,2013-01-03 07:54:00,
2013-01-03 02:57:00,40.5,38.1,30.14,NE,51,2.0,-999.0,91,0.00,,,0.00,Wunderground v.1.15,2013-01-03 07:57:00,
2013-01-03 02:58:00,40.4,38.0,30.14,NE,51,1.0,-999.0,91,0.00,,,0.00,Wunderground v.1.15,2013-01-03 07:58:00,
2013-01-03 02:59:00,40.5,38.1,30.14,NE,56,1.0,-999.0,91,0.00,,,0.00,Wunderground v.1.15,2013-01-03 07:59:00,
2013-01-03 03:03:00,40.4,38.0,30.13,NE,56,0.0,-999.0,91,0.00,,,0.00,Wunderground v.1.15,2013-01-03 08:03:00,
2013-01-03 03:04:00,40.4,38.0,30.13,NE,56,0.0,-999.0,91,0.00,,,0.00,Wunderground v.1.15,2013-01-03 08:04:00,
2013-01-03 03:08:00,40.5,38.1,30.13,ENE,75,0.0,-999.0,91,0.00,,,0.00,Wunderground v.1.15,2013-01-03 08:08:00,
2013-01-03 03:10:00,40.4,38.0,30.14,ENE,75,0.0,-999.0,91,0.00,,,0.00,Wunderground v.1.15,2013-01-03 08:10:00,
2013-01-03 03:13:00,40.4,38.0,30.14,ENE,75,0.0,-999.0,91,0.00,,,0.00,Wunderground v.1.15,2013-01-03 08:13:00,
2013-01-03 03:15:00,40.5,38.1,30.14,ENE,75,0.0,-999.0,91,0.00,,,0.00,Wunderground v.1.15,2013-01-03 08:15:00,
2013-01-03 03:18:00,40.5,38.1,30.13,ENE,75,1.0,-999.0,91,0.00,,,0.00,Wunderground v.1.15,2013-01-03 08:18:00,
2013-01-03 03:19:00,40.5,38.1,30.13,ENE,75,0.0,-999.0,91,0.00,,,0.00,Wunderground v.1.15,2013-01-03 08:19:00,
2013-01-03 03:20:00,40.5,38.1,30.13,ENE,75,1.0,-999.0,91,0.00,,,0.00,Wunderground v.1.15,2013-01-03 08:20:00,
2013-01-03 03:23:00,40.5,38.1,30.13,ENE,75,1.0,-999.0,91,0.00,,,0.00,Wunderground v.1.15,2013-01-03 08:23:00,
2013-01-03 03:24:00,40.5,38.1,30.13,ENE,75,1.0,-999.0,91,0.00,,,0.00,Wunderground v.1.15,2013-01-03 08:24:00,
2013-01-03 03:25:00,40.4,38.0,30.13,ENE,75,0.0,-999.0,91,0.00,,,0.00,Wunderground v.1.15,2013-01-03 08:25:00,
2013-01-03 03:28:00,40.5,38.1,30.13,ENE,75,0.0,-999.0,91,0.00,,,0.00,Wunderground v.1.15,2013-01-03 08:28:00,
2013-01-03 03:29:00,40.4,38.0,30.13,ENE,75,0.0,-999.0,91,0.00,,,0.00,Wunderground v.1.15,2013-01-03 08:29:00,
2013-01-03 03:30:00,40.4,38.0,30.13,ENE,75,0.0,-999.0,91,0.00,,,0.00,Wunderground v.1.15,2013-01-03 08:30:00,
2013-01-03 03:33:00,40.4,38.0,30.14,ENE,75,0.0,-999.0,91,0.00,,,0.00,Wunderground v.1.15,2013-01-03 08:33:00,
2013-01-03 03:34:00,40.4,38.0,30.14,ENE,75,0.0,-999.0,91,0.00,,,0.00,Wunderground v.1.15,2013-01-03 08:34:00,
2013-01-03 03:35:00,40.4,38.0,30.14,ENE,75,0.0,-999.0,91,0.00,,,0.00,Wunderground v.1.15,2013-01-03 08:35:00,
2013-01-03 03:39:00,40.5,38.1,30.14,ENE,75,0.0,-999.0,91,0.00,,,0.00,Wunderground v.1.15,2013-01-03 08:39:00,
2013-01-03 03:41:00,40.5,38.1,30.14,ENE,75,1.0,-999.0,91,0.00,,,0.00,Wunderground v.1.15,2013-01-03 08:41:00,
2013-01-03 03:44:00,40.5,38.1,30.14,ENE,75,0.0,-999.0,91,0.00,,,0.00,Wunderground v.1.15,2013-01-03 08:44:00,
2013-01-03 03:45:00,40.5,38.1,30.13,ENE,75,0.0,-999.0,91,0.00,,,0.00,Wunderground v.1.15,2013-01-03 08:45:00,
2013-01-03 03:46:00,40.6,38.2,30.13,ENE,75,0.0,-999.0,91,0.00,,,0.00,Wunderground v.1.15,2013-01-03 08:46:00,
2013-01-03 03:49:00,40.5,38.1,30.14,ENE,75,0.0,-999.0,91,0.00,,,0.00,Wunderground v.1.15,2013-01-03 08:49:00,
2013-01-03 03:50:00,40.5,38.1,30.14,ENE,75,0.0,-999.0,91,0.00,,,0.00,Wunderground v.1.15,2013-01-03 08:50:00,
2013-01-03 03:51:00,40.5,38.1,30.14,ENE,75,0.0,-999.0,91,0.00,,,0.00,Wunderground v.1.15,2013-01-03 08:51:00,
2013-01-03 03:54:00,40.4,38.0,30.14,ENE,75,0.0,-999.0,91,0.00,,,0.00,Wunderground v.1.15,2013-01-03 08:54:00,
2013-01-03 03:55:00,40.5,38.1,30.14,ENE,75,1.0,-999.0,91,0.00,,,0.00,Wunderground v.1.15,2013-01-03 08:55:00,
2013-01-03 03:56:00,40.5,38.1,30.14,NNE,12,0.0,-999.0,91,0.00,,,0.00,Wunderground v.1.15,2013-01-03 08:56:00,
2013-01-03 03:59:00,40.5,38.1,30.13,NNE,13,0.0,-999.0,91,0.00,,,0.00,Wunderground v.1.15,2013-01-03 08:59:00,
2013-01-03 04:00:00,40.5,38.1,30.13,NNE,13,0.0,-999.0,91,0.00,,,0.00,Wunderground v.1.15,2013-01-03 09:00:00,
2013-01-03 04:01:00,40.5,38.1,30.13,NNE,13,0.0,-999.0,91,0.00,,,0.00,Wunderground v.1.15,2013-01-03 09:01:00,
2013-01-03 04:05:00,40.4,38.0,30.13,ENE,68,1.0,-999.0,91,0.00,,,0.00,Wunderground v.1.15,2013-01-03 09:05:00,
2013-01-03 04:06:00,40.4,38.0,30.12,ENE,68,1.0,-999.0,91,0.00,,,0.00,Wunderground v.1.15,2013-01-03 09:06:00,
2013-01-03 04:10:00,40.4,38.0,30.11,ENE,68,1.0,-999.0,91,0.00,,,0.00,Wunderground v.1.15,2013-01-03 09:10:00,
2013-01-03 04:11:00,40.4,38.0,30.11,ENE,68,0.0,-999.0,91,0.00,,,0.00,Wunderground v.1.15,2013-01-03 09:11:00,
2013-01-03 04:15:00,40.4,38.0,30.11,ENE,68,0.0,-999.0,91,0.00,,,0.00,Wunderground v.1.15,2013-01-03 09:15:00,
2013-01-03 04:16:00,40.4,38.0,30.12,ENE,68,0.0,-999.0,91,0.00,,,0.00,Wunderground v.1.15,2013-01-03 09:16:00,
2013-01-03 04:20:00,40.3,37.9,30.12,ENE,68,0.0,-999.0,91,0.00,,,0.00,Wunderground v.1.15,2013-01-03 09:20:00,
2013-01-03 04:22:00,40.3,37.9,30.12,ENE,68,0.0,-999.0,91,0.00,,,0.00,Wunderground v.1.15,2013-01-03 09:22:00,
2013-01-03 04:25:00,40.3,37.9,30.12,ENE,68,0.0,-999.0,91,0.00,,,0.00,Wunderground v.1.15,2013-01-03 09:25:00,
2013-01-03 04:26:00,40.3,37.9,30.13,ENE,68,0.0,-999.0,91,0.00,,,0.00,Wunderground v.1.15,2013-01-03 09:26:00,
2013-01-03 04:30:00,40.4,38.0,30.13,ENE,68,0.0,-999.0,91,0.00,,,0.00,Wunderground v.1.15,2013-01-03 09:30:00,
2013-01-03 04:31:00,40.4,38.0,30.13,ENE,68,0.0,-999.0,91,0.00,,,0.00,Wunderground v.1.15,2013-01-03 09:31:00,
2013-01-03 04:32:00,40.4,38.0,30.13,ENE,68,0.0,-999.0,91,0.00,,,0.00,Wunderground v.1.15,2013-01-03 09:32:00,
2013-01-03 04:35:00,40.4,38.0,30.13,SE,127,1.0,-999.0,91,0.00,,,0.00,Wunderground v.1.15,2013-01-03 09:35:00,
2013-01-03 04:36:00,40.4,38.0,30.12,SE,130,1.0,-999.0,91,0.00,,,0.00,Wunderground v.1.15,2013-01-03 09:36:00,
2013-01-03 04:37:00,40.4,38.0,30.12,SE,130,0.0,-999.0,91,0.00,,,0.00,Wunderground v.1.15,2013-01-03 09:37:00,
2013-01-03 04:41:00,40.3,37.6,30.12,SE,130,0.0,-999.0,90,0.00,,,0.00,Wunderground v.1.15,2013-01-03 09:41:00,
2013-01-03 04:42:00,40.3,37.6,30.12,SSE,162,0.0,-999.0,90,0.00,,,0.00,Wunderground v.1.15,2013-01-03 09:42:00,
2013-01-03 04:46:00,40.3,37.6,30.12,SSE,162,0.0,-999.0,90,0.00,,,0.00,Wunderground v.1.15,2013-01-03 09:46:00,
2013-01-03 04:47:00,40.3,37.6,30.12,SSE,162,0.0,-999.0,90,0.00,,,0.00,Wunderground v.1.15,2013-01-03 09:47:00,
2013-01-03 04:51:00,40.3,37.6,30.13,SSE,162,0.0,-999.0,90,0.00,,,0.00,Wunderground v.1.15,2013-01-03 09:51:00,
2013-01-03 04:52:00,40.3,37.6,30.13,SSE,162,0.0,-999.0,90,0.00,,,0.00,Wunderground v.1.15,2013-01-03 09:52:00,
2013-01-03 04:56:00,40.3,37.6,30.13,SSE,162,0.0,-999.0,90,0.00,,,0.00,Wunderground v.1.15,2013-01-03 09:56:00,
2013-01-03 04:57:00,40.3,37.6,30.13,SSE,162,0.0,-999.0,90,0.00,,,0.00,Wunderground v.1.15,2013-01-03 09:57:00,
2013-01-03 05:01:00,40.3,37.6,30.13,SSE,162,0.0,-999.0,90,0.00,,,0.00,Wunderground v.1.15,2013-01-03 10:01:00,
2013-01-03 05:02:00,40.3,37.6,30.13,SSE,162,0.0,-999.0,90,0.00,,,0.00,Wunderground v.1.15,2013-01-03 10:02:00,
2013-01-03 05:06:00,40.3,37.6,30.13,SSE,162,0.0,-999.0,90,0.00,,,0.00,Wunderground v.1.15,2013-01-03 10:06:00,
2013-01-03 05:07:00,40.3,37.6,30.13,SSE,162,0.0,-999.0,90,0.00,,,0.00,Wunderground v.1.15,2013-01-03 10:07:00,
2013-01-03 05:08:00,40.3,37.6,30.12,SSE,162,0.0,-999.0,90,0.00,,,0.00,Wunderground v.1.15,2013-01-03 10:08:00,
2013-01-03 05:12:00,40.3,37.9,30.13,SSE,162,0.0,-999.0,91,0.00,,,0.00,Wunderground v.1.15,2013-01-03 10:12:00,
2013-01-03 05:13:00,40.3,37.9,30.13,SSE,162,0.0,-999.0,91,0.00,,,0.00,Wunderground v.1.15,2013-01-03 10:13:00,
2013-01-03 05:17:00,40.3,37.9,30.13,SSE,162,0.0,-999.0,91,0.00,,,0.00,Wunderground v.1.15,2013-01-03 10:17:00,
2013-01-03 05:18:00,40.3,37.9,30.13,SSE,162,0.0,-999.0,91,0.00,,,0.00,Wunderground v.1.15,2013-01-03 10:18:00,
2013-01-03 05:22:00,40.3,37.9,30.13,SSE,162,0.0,-999.0,91,0.00,,,0.00,Wunderground v.1.15,2013-01-03 10:22:00,
2013-01-03 05:23:00,40.3,37.9,30.13,SE,142,1.0,-999.0,91,0.00,,,0.00,Wunderground v.1.15,2013-01-03 10:23:00,
2013-01-03 05:27:00,40.3,37.9,30.13,SE,142,0.0,-999.0,91,0.00,,,0.00,Wunderground v.1.15,2013-01-03 10:27:00,
2013-01-03 05:28:00,40.3,37.9,30.14,SE,142,0.0,-999.0,91,0.00,,,0.00,Wunderground v.1.15,2013-01-03 10:28:00,
2013-01-03 05:32:00,40.3,37.9,30.14,SE,141,0.0,-999.0,91,0.00,,,0.00,Wunderground v.1.15,2013-01-03 10:32:00,
2013-01-03 05:33:00,40.3,37.9,30.14,SE,142,1.0,-999.0,91,0.00,,,0.00,Wunderground v.1.15,2013-01-03 10:33:00,
2013-01-03 05:37:00,40.2,37.5,30.14,ENE,75,0.0,-999.0,90,0.00,,,0.00,Wunderground v.1.15,2013-01-03 10:37:00,
2013-01-03 05:38:00,40.2,37.5,30.14,ENE,75,0.0,-999.0,90,0.00,,,0.00,Wunderground v.1.15,2013-01-03 10:38:00,
2013-01-03 05:42:00,40.2,37.8,30.13,ENE,75,1.0,-999.0,91,0.00,,,0.00,Wunderground v.1.15,2013-01-03 10:42:00,
2013-01-03 05:43:00,40.2,37.8,30.13,East,85,1.0,-999.0,91,0.00,,,0.00,Wunderground v.1.15,2013-01-03 10:43:00,
2013-01-03 05:44:00,40.2,37.5,30.13,East,85,1.0,-999.0,90,0.00,,,0.00,Wunderground v.1.15,2013-01-03 10:44:00,
2013-01-03 05:47:00,40.2,37.5,30.13,East,85,1.0,-999.0,90,0.00,,,0.00,Wunderground v.1.15,2013-01-03 10:47:00,
2013-01-03 05:49:00,40.1,37.4,30.13,East,85,0.0,-999.0,90,0.00,,,0.00,Wunderground v.1.15,2013-01-03 10:49:00,
2013-01-03 05:53:00,40.1,37.4,30.12,East,85,0.0,-999.0,90,0.00,,,0.00,Wunderground v.1.15,2013-01-03 10:53:00,
2013-01-03 05:54:00,40.1,37.4,30.13,East,85,0.0,-999.0,90,0.00,,,0.00,Wunderground v.1.15,2013-01-03 10:54:00,
2013-01-03 05:58:00,40.1,37.4,30.13,East,84,0.0,-999.0,90,0.00,,,0.00,Wunderground v.1.15,2013-01-03 10:58:00,
2013-01-03 05:59:00,40.1,37.4,30.14,East,85,0.0,-999.0,90,0.00,,,0.00,Wunderground v.1.15,2013-01-03 10:59:00,
2013-01-03 06:03:00,40.2,37.5,30.14,ENE,72,0.0,-999.0,90,0.00,,,0.00,Wunderground v.1.15,2013-01-03 11:03:00,
2013-01-03 06:04:00,40.2,37.5,30.14,ENE,72,0.0,-999.0,90,0.00,,,0.00,Wunderground v.1.15,2013-01-03 11:04:00,
2013-01-03 06:05:00,40.2,37.5,30.14,ENE,72,0.0,-999.0,90,0.00,,,0.00,Wunderground v.1.15,2013-01-03 11:05:00,
2013-01-03 06:08:00,40.2,37.5,30.13,ENE,74,0.0,-999.0,90,0.00,,,0.00,Wunderground v.1.15,2013-01-03 11:08:00,
2013-01-03 06:09:00,40.2,37.5,30.13,ENE,74,1.0,-999.0,90,0.00,,,0.00,Wunderground v.1.15,2013-01-03 11:09:00,
2013-01-03 06:10:00,40.2,37.5,30.13,ENE,73,0.0,-999.0,90,0.00,,,0.00,Wunderground v.1.15,2013-01-03 11:10:00,
2013-01-03 06:13:00,40.1,37.4,30.14,ENE,74,0.0,-999.0,90,0.00,,,0.00,Wunderground v.1.15,2013-01-03 11:13:00,
2013-01-03 06:14:00,40.1,37.4,30.14,ENE,74,0.0,-999.0,90,0.00,,,0.00,Wunderground v.1.15,2013-01-03 11:14:00,
2013-01-03 06:15:00,40.1,37.4,30.14,ENE,74,0.0,-999.0,90,0.00,,,0.00,Wunderground v.1.15,2013-01-03 11:15:00,
2013-01-03 06:18:00,40.1,37.4,30.14,ENE,74,0.0,-999.0,90,0.00,,,0.00,Wunderground v.1.15,2013-01-03 11:18:00,
2013-01-03 06:19:00,40.1,37.4,30.14,ENE,73,0.0,-999.0,90,0.00,,,0.00,Wunderground v.1.15,2013-01-03 11:19:00,
2013-01-03 06:20:00,40.2,37.5,30.14,ENE,74,0.0,-999.0,90,0.00,,,0.00,Wunderground v.1.15,2013-01-03 11:20:00,
2013-01-03 06:23:00,40.2,37.5,30.14,ENE,73,0.0,-999.0,90,0.00,,,0.00,Wunderground v.1.15,2013-01-03 11:23:00,
2013-01-03 06:24:00,40.2,37.5,30.14,ENE,74,0.0,-999.0,90,0.00,,,0.00,Wunderground v.1.15,2013-01-03 11:24:00,
2013-01-03 06:25:00,40.2,37.5,30.14,ENE,74,0.0,-999.0,90,0.00,,,0.00,Wunderground v.1.15,2013-01-03 11:25:00,
2013-01-03 06:29:00,40.2,37.5,30.14,ENE,74,0.0,-999.0,90,0.00,,,0.00,Wunderground v.1.15,2013-01-03 11:29:00,
2013-01-03 06:30:00,40.2,37.5,30.14,ENE,74,0.0,-999.0,90,0.00,,,0.00,Wunderground v.1.15,2013-01-03 11:30:00,
2013-01-03 06:31:00,40.2,37.5,30.14,ENE,74,0.0,-999.0,90,0.00,,,0.00,Wunderground v.1.15,2013-01-03 11:31:00,
2013-01-03 06:34:00,40.2,37.5,30.14,ENE,74,0.0,-999.0,90,0.00,,,0.00,Wunderground v.1.15,2013-01-03 11:34:00,
2013-01-03 06:35:00,40.2,37.5,30.14,ENE,74,0.0,-999.0,90,0.00,,,0.00,Wunderground v.1.15,2013-01-03 11:35:00,
2013-01-03 06:36:00,40.2,37.5,30.14,ENE,74,0.0,-999.0,90,0.00,,,0.00,Wunderground v.1.15,2013-01-03 11:36:00,
2013-01-03 06:39:00,40.2,37.5,30.15,ENE,74,0.0,-999.0,90,0.00,,,0.00,Wunderground v.1.15,2013-01-03 11:39:00,
2013-01-03 06:41:00,40.2,37.5,30.14,ENE,74,0.0,-999.0,90,0.00,,,0.00,Wunderground v.1.15,2013-01-03 11:41:00,
2013-01-03 06:44:00,40.2,37.5,30.15,ENE,73,0.0,-999.0,90,0.00,,,0.00,Wunderground v.1.15,2013-01-03 11:44:00,
2013-01-03 06:46:00,40.2,37.5,30.15,ENE,74,0.0,-999.0,90,0.00,,,0.00,Wunderground v.1.15,2013-01-03 11:46:00,
2013-01-03 06:49:00,40.2,37.5,30.15,ENE,74,0.0,-999.0,90,0.00,,,0.00,Wunderground v.1.15,2013-01-03 11:49:00,
2013-01-03 06:51:00,40.2,37.5,30.15,ENE,74,1.0,-999.0,90,0.00,,,0.00,Wunderground v.1.15,2013-01-03 11:51:00,
2013-01-03 06:55:00,40.1,37.4,30.15,ENE,72,1.0,-999.0,90,0.00,,,0.00,Wunderground v.1.15,2013-01-03 11:55:00,
2013-01-03 06:56:00,40.1,37.1,30.16,East,80,1.0,-999.0,89,0.00,,,0.00,Wunderground v.1.15,2013-01-03 11:56:00,
2013-01-03 07:00:00,40.1,37.1,30.16,ENE,75,0.0,-999.0,89,0.00,,,0.00,Wunderground v.1.15,2013-01-03 12:00:00,
2013-01-03 07:01:00,40.1,37.1,30.16,ENE,75,0.0,-999.0,89,0.00,,,0.00,Wunderground v.1.15,2013-01-03 12:01:00,
2013-01-03 07:02:00,40.1,37.1,30.16,ENE,75,0.0,-999.0,89,0.00,,,0.00,Wunderground v.1.15,2013-01-03 12:02:00,
2013-01-03 07:05:00,40.1,37.1,30.15,ENE,75,0.0,-999.0,89,0.00,,,0.00,Wunderground v.1.15,2013-01-03 12:05:00,
2013-01-03 07:06:00,40.1,37.1,30.15,ENE,75,0.0,-999.0,89,0.00,,,0.00,Wunderground v.1.15,2013-01-03 12:06:00,
2013-01-03 07:07:00,40.1,37.1,30.15,ENE,75,0.0,-999.0,89,0.00,,,0.00,Wunderground v.1.15,2013-01-03 12:07:00,
2013-01-03 07:11:00,40.1,37.4,30.15,ENE,75,1.0,-999.0,90,0.00,,,0.00,Wunderground v.1.15,2013-01-03 12:11:00,
2013-01-03 07:12:00,40.1,37.4,30.15,ENE,78,2.0,-999.0,90,0.00,,,0.00,Wunderground v.1.15,2013-01-03 12:12:00,
2013-01-03 07:16:00,40.1,37.1,30.15,NE,49,2.0,-999.0,89,0.00,,,0.00,Wunderground v.1.15,2013-01-03 12:16:00,
2013-01-03 07:17:00,40.1,37.1,30.15,ENE,77,1.0,-999.0,89,0.00,,,0.00,Wunderground v.1.15,2013-01-03 12:17:00,
2013-01-03 07:21:00,40.0,37.0,30.16,East,83,0.0,-999.0,89,0.00,,,0.00,Wunderground v.1.15,2013-01-03 12:21:00,
2013-01-03 07:22:00,40.1,37.1,30.16,East,83,1.0,-999.0,89,0.00,,,0.00,Wunderground v.1.15,2013-01-03 12:22:00,
2013-01-03 07:26:00,40.0,37.0,30.15,ENE,78,1.0,-999.0,89,0.00,,,0.00,Wunderground v.1.15,2013-01-03 12:26:00,
2013-01-03 07:27:00,40.1,37.1,30.15,ENE,78,0.0,-999.0,89,0.00,,,0.00,Wunderground v.1.15,2013-01-03 12:27:00,
2013-01-03 07:31:00,40.1,37.1,30.15,ENE,77,0.0,-999.0,89,0.00,,,0.00,Wunderground v.1.15,2013-01-03 12:31:00,
2013-01-03 07:32:00,40.0,37.0,30.15,ENE,78,0.0,-999.0,89,0.00,,,0.00,Wunderground v.1.15,2013-01-03 12:32:00,
2013-01-03 07:33:00,40.0,37.0,30.15,ENE,77,1.0,-999.0,89,0.00,,,0.00,Wunderground v.1.15,2013-01-03 12:33:00,
2013-01-03 07:37:00,40.0,36.7,30.16,ENE,68,2.0,-999.0,88,0.00,,,0.00,Wunderground v.1.15,2013-01-03 12:37:00,
2013-01-03 07:38:00,40.0,36.7,30.15,ENE,63,2.0,-999.0,88,0.00,,,0.00,Wunderground v.1.15,2013-01-03 12:38:00,
2013-01-03 07:42:00,40.0,36.7,30.15,East,82,2.0,-999.0,88,0.00,,,0.00,Wunderground v.1.15,2013-01-03 12:42:00,
2013-01-03 07:43:00,40.0,36.7,30.15,East,82,0.0,-999.0,88,0.00,,,0.00,Wunderground v.1.15,2013-01-03 12:43:00,
2013-01-03 07:47:00,40.0,36.7,30.15,East,79,0.0,-999.0,88,0.00,,,0.00,Wunderground v.1.15,2013-01-03 12:47:00,
2013-01-03 07:48:00,40.0,36.7,30.15,East,79,0.0,-999.0,88,0.00,,,0.00,Wunderground v.1.15,2013-01-03 12:48:00,
2013-01-03 07:52:00,40.0,36.7,30.15,ENE,76,1.0,-999.0,88,0.00,,,0.00,Wunderground v.1.15,2013-01-03 12:52:00,
2013-01-03 07:53:00,40.0,36.7,30.15,ENE,76,1.0,-999.0,88,0.00,,,0.00,Wunderground v.1.15,2013-01-03 12:53:00,
2013-01-03 07:57:00,40.0,36.7,30.15,East,84,0.0,-999.0,88,0.00,,,0.00,Wunderground v.1.15,2013-01-03 12:57:00,
2013-01-03 07:58:00,40.0,36.7,30.15,East,84,1.0,-999.0,88,0.00,,,0.00,Wunderground v.1.15,2013-01-03 12:58:00,
2013-01-03 08:02:00,40.1,36.8,30.15,ENE,65,1.0,-999.0,88,0.00,,,0.00,Wunderground v.1.15,2013-01-03 13:02:00,
2013-01-03 08:03:00,40.1,36.8,30.15,NE,52,1.0,-999.0,88,0.00,,,0.00,Wunderground v.1.15,2013-01-03 13:03:00,
2013-01-03 08:07:00,40.0,36.7,30.16,NE,50,2.0,-999.0,88,0.00,,,0.00,Wunderground v.1.15,2013-01-03 13:07:00,
2013-01-03 08:08:00,40.1,36.8,30.16,NE,49,1.0,-999.0,88,0.00,,,0.00,Wunderground v.1.15,2013-01-03 13:08:00,
2013-01-03 08:09:00,40.0,36.4,30.16,ENE,65,2.0,-999.0,87,0.00,,,0.00,Wunderground v.1.15,2013-01-03 13:09:00,
2013-01-03 08:12:00,40.1,36.8,30.16,East,81,0.0,-999.0,88,0.00,,,0.00,Wunderground v.1.15,2013-01-03 13:12:00,
2013-01-03 08:13:00,40.1,36.8,30.16,East,81,0.0,-999.0,88,0.00,,,0.00,Wunderground v.1.15,2013-01-03 13:13:00,
2013-01-03 08:14:00,40.1,36.8,30.16,East,80,1.0,-999.0,88,0.00,,,0.00,Wunderground v.1.15,2013-01-03 13:14:00,
2013-01-03 08:18:00,40.1,36.5,30.16,ENE,58,2.0,-999.0,87,0.00,,,0.00,Wunderground v.1.15,2013-01-03 13:18:00,
2013-01-03 08:19:00,40.1,36.5,30.16,ENE,74,0.0,-999.0,87,0.00,,,0.00,Wunderground v.1.15,2013-01-03 13:19:00,
2013-01-03 08:23:00,40.2,36.6,30.16,ENE,74,1.0,-999.0,87,0.00,,,0.00,Wunderground v.1.15,2013-01-03 13:23:00,
2013-01-03 08:24:00,40.2,36.6,30.16,ENE,74,0.0,-999.0,87,0.00,,,0.00,Wunderground v.1.15,2013-01-03 13:24:00,
2013-01-03 08:28:00,40.3,36.7,30.16,ENE,72,2.0,-999.0,87,0.00,,,0.00,Wunderground v.1.15,2013-01-03 13:28:00,
2013-01-03 08:29:00,40.3,36.7,30.16,ENE,78,2.0,-999.0,87,0.00,,,0.00,Wunderground v.1.15,2013-01-03 13:29:00,
2013-01-03 08:33:00,40.3,36.7,30.16,East,79,2.0,-999.0,87,0.00,,,0.00,Wunderground v.1.15,2013-01-03 13:33:00,
2013-01-03 08:34:00,40.3,36.7,30.16,East,85,2.0,-999.0,87,0.00,,,0.00,Wunderground v.1.15,2013-01-03 13:34:00,
2013-01-03 08:39:00,40.3,36.7,30.16,ENE,65,2.0,-999.0,87,0.00,,,0.00,Wunderground v.1.15,2013-01-03 13:39:00,
2013-01-03 08:40:00,40.3,36.7,30.16,ENE,77,2.0,-999.0,87,0.00,,,0.00,Wunderground v.1.15,2013-01-03 13:40:00,
2013-01-03 08:44:00,40.3,36.7,30.17,East,79,1.0,-999.0,87,0.00,,,0.00,Wunderground v.1.15,2013-01-03 13:44:00,
2013-01-03 08:45:00,40.3,36.7,30.17,East,79,1.0,-999.0,87,0.00,,,0.00,Wunderground v.1.15,2013-01-03 13:45:00,
2013-01-03 08:49:00,40.4,36.8,30.17,East,94,2.0,-999.0,87,0.00,,,0.00,Wunderground v.1.15,2013-01-03 13:49:00,
2013-01-03 08:50:00,40.4,36.5,30.17,East,85,1.0,-999.0,86,0.00,,,0.00,Wunderground v.1.15,2013-01-03 13:50:00,
2013-01-03 08:54:00,40.4,36.5,30.17,NE,47,2.0,-999.0,86,0.00,,,0.00,Wunderground v.1.15,2013-01-03 13:54:00,
2013-01-03 08:55:00,40.4,36.5,30.17,East,79,2.0,-999.0,86,0.00,,,0.00,Wunderground v.1.15,2013-01-03 13:55:00,
2013-01-03 08:59:00,40.4,36.5,30.17,ENE,75,1.0,-999.0,86,0.00,,,0.00,Wunderground v.1.15,2013-01-03 13:59:00,
2013-01-03 09:00:00,40.4,36.5,30.17,ENE,75,1.0,-999.0,86,0.00,,,0.00,Wunderground v.1.15,2013-01-03 14:00:00,
2013-01-03 09:01:00,40.4,36.5,30.17,ENE,72,1.0,-999.0,86,0.00,,,0.00,Wunderground v.1.15,2013-01-03 14:01:00,
2013-01-03 09:04:00,40.5,36.9,30.17,ENE,72,1.0,-999.0,87,0.00,,,0.00,Wunderground v.1.15,2013-01-03 14:04:00,
2013-01-03 09:05:00,40.5,36.9,30.17,ENE,72,0.0,-999.0,87,0.00,,,0.00,Wunderground v.1.15,2013-01-03 14:05:00,
2013-01-03 09:06:00,40.6,37.0,30.17,ENE,72,0.0,-999.0,87,0.00,,,0.00,Wunderground v.1.15,2013-01-03 14:06:00,
2013-01-03 09:10:00,40.6,37.0,30.17,ENE,75,1.0,-999.0,87,0.00,,,0.00,Wunderground v.1.15,2013-01-03 14:10:00,
2013-01-03 09:11:00,40.6,36.7,30.17,ENE,75,1.0,-999.0,86,0.00,,,0.00,Wunderground v.1.15,2013-01-03 14:11:00,
2013-01-03 09:15:00,40.7,36.8,30.18,ENE,72,1.0,-999.0,86,0.00,,,0.00,Wunderground v.1.15,2013-01-03 14:15:00,
2013-01-03 09:17:00,40.7,36.8,30.18,ENE,75,3.0,-999.0,86,0.00,,,0.00,Wunderground v.1.15,2013-01-03 14:17:00,
2013-01-03 09:20:00,40.7,36.5,30.17,ENE,72,1.0,-999.0,85,0.00,,,0.00,Wunderground v.1.15,2013-01-03 14:20:00,
2013-01-03 09:22:00,40.7,36.5,30.18,NE,39,2.0,-999.0,85,0.00,,,0.00,Wunderground v.1.15,2013-01-03 14:22:00,
2013-01-03 09:25:00,40.7,36.5,30.18,ENE,71,2.0,-999.0,85,0.00,,,0.00,Wunderground v.1.15,2013-01-03 14:25:00,
2013-01-03 09:26:00,40.8,36.6,30.18,ENE,72,1.0,-999.0,85,0.00,,,0.00,Wunderground v.1.15,2013-01-03 14:26:00,
2013-01-03 09:27:00,40.8,36.6,30.18,ENE,72,2.0,-999.0,85,0.00,,,0.00,Wunderground v.1.15,2013-01-03 14:27:00,
2013-01-03 09:30:00,40.8,36.6,30.18,ENE,70,2.0,-999.0,85,0.00,,,0.00,Wunderground v.1.15,2013-01-03 14:30:00,
2013-01-03 09:31:00,40.8,36.6,30.18,ENE,69,1.0,-999.0,85,0.00,,,0.00,Wunderground v.1.15,2013-01-03 14:31:00,
2013-01-03 09:33:00,40.8,36.6,30.18,ENE,69,1.0,-999.0,85,0.00,,,0.00,Wunderground v.1.15,2013-01-03 14:33:00,
2013-01-03 09:35:00,40.8,36.6,30.19,ENE,69,1.0,-999.0,85,0.00,,,0.00,Wunderground v.1.15,2013-01-03 14:35:00,
2013-01-03 09:36:00,40.9,36.7,30.19,ENE,70,0.0,-999.0,85,0.00,,,0.00,Wunderground v.1.15,2013-01-03 14:36:00,
2013-01-03 09:38:00,41.0,37.1,30.19,ENE,69,0.0,-999.0,86,0.00,,,0.00,Wunderground v.1.15,2013-01-03 14:38:00,
2013-01-03 09:40:00,41.1,36.9,30.19,ENE,69,0.0,-999.0,85,0.00,,,0.00,Wunderground v.1.15,2013-01-03 14:40:00,
2013-01-03 09:41:00,41.1,36.9,30.19,ENE,69,0.0,-999.0,85,0.00,,,0.00,Wunderground v.1.15,2013-01-03 14:41:00,
2013-01-03 09:43:00,41.1,36.9,30.19,ENE,70,1.0,-999.0,85,0.00,,,0.00,Wunderground v.1.15,2013-01-03 14:43:00,
2013-01-03 09:46:00,41.1,36.6,30.18,ENE,65,2.0,-999.0,84,0.00,,,0.00,Wunderground v.1.15,2013-01-03 14:46:00,
2013-01-03 09:48:00,41.1,36.6,30.18,East,96,1.0,-999.0,84,0.00,,,0.00,Wunderground v.1.15,2013-01-03 14:48:00,
2013-01-03 09:51:00,41.1,36.6,30.18,NNE,16,0.0,-999.0,84,0.00,,,0.00,Wunderground v.1.15,2013-01-03 14:51:00,
2013-01-03 09:54:00,41.1,36.6,30.18,ENE,58,0.0,-999.0,84,0.00,,,0.00,Wunderground v.1.15,2013-01-03 14:54:00,
2013-01-03 09:56:00,41.1,36.6,30.18,ENE,74,0.0,-999.0,84,0.00,,,0.00,Wunderground v.1.15,2013-01-03 14:56:00,
2013-01-03 09:59:00,41.1,36.6,30.19,East,81,1.0,-999.0,84,0.00,,,0.00,Wunderground v.1.15,2013-01-03 14:59:00,
2013-01-03 10:01:00,41.2,36.7,30.19,ENE,69,1.0,-999.0,84,0.00,,,0.00,Wunderground v.1.15,2013-01-03 15:01:00,
2013-01-03 10:04:00,41.2,36.7,30.19,ENE,69,0.0,-999.0,84,0.00,,,0.00,Wunderground v.1.15,2013-01-03 15:04:00,
2013-01-03 10:06:00,41.3,36.8,30.19,ENE,69,0.0,-999.0,84,0.00,,,0.00,Wunderground v.1.15,2013-01-03 15:06:00,
2013-01-03 10:09:00,41.4,36.9,30.19,ENE,78,1.0,-999.0,84,0.00,,,0.00,Wunderground v.1.15,2013-01-03 15:09:00,
2013-01-03 10:11:00,41.5,36.7,30.19,ENE,78,1.0,-999.0,83,0.00,,,0.00,Wunderground v.1.15,2013-01-03 15:11:00,
2013-01-03 10:12:00,41.5,36.7,30.19,ENE,78,0.0,-999.0,83,0.00,,,0.00,Wunderground v.1.15,2013-01-03 15:12:00,
2013-01-03 10:14:00,41.5,36.7,30.19,ENE,77,1.0,-999.0,83,0.00,,,0.00,Wunderground v.1.15,2013-01-03 15:14:00,
2013-01-03 10:16:00,41.6,36.8,30.19,ENE,68,2.0,-999.0,83,0.00,,,0.00,Wunderground v.1.15,2013-01-03 15:16:00,
2013-01-03 10:17:00,41.6,36.8,30.19,ENE,78,1.0,-999.0,83,0.00,,,0.00,Wunderground v.1.15,2013-01-03 15:17:00,
2013-01-03 10:19:00,41.6,36.5,30.19,ENE,65,2.0,-999.0,82,0.00,,,0.00,Wunderground v.1.15,2013-01-03 15:19:00,
2013-01-03 10:21:00,41.6,36.5,30.19,ENE,65,0.0,-999.0,82,0.00,,,0.00,Wunderground v.1.15,2013-01-03 15:21:00,
2013-01-03 10:22:00,41.6,36.5,30.19,ENE,65,0.0,-999.0,82,0.00,,,0.00,Wunderground v.1.15,2013-01-03 15:22:00,
2013-01-03 10:24:00,41.6,36.8,30.19,ENE,65,1.0,-999.0,83,0.00,,,0.00,Wunderground v.1.15,2013-01-03 15:24:00,
2013-01-03 10:27:00,41.7,36.6,30.19,NE,39,1.0,-999.0,82,0.00,,,0.00,Wunderground v.1.15,2013-01-03 15:27:00,
2013-01-03 10:29:00,41.8,37.0,30.19,ENE,65,1.0,-999.0,83,0.00,,,0.00,Wunderground v.1.15,2013-01-03 15:29:00,
2013-01-03 10:32:00,41.8,36.7,30.19,ENE,70,1.0,-999.0,82,0.00,,,0.00,Wunderground v.1.15,2013-01-03 15:32:00,
2013-01-03 10:34:00,41.7,36.3,30.19,East,87,1.0,-999.0,81,0.00,,,0.00,Wunderground v.1.15,2013-01-03 15:34:00,
2013-01-03 10:37:00,41.7,36.6,30.19,East,86,2.0,-999.0,82,0.00,,,0.00,Wunderground v.1.15,2013-01-03 15:37:00,
2013-01-03 10:39:00,41.6,36.2,30.19,ENE,77,0.0,-999.0,81,0.00,,,0.00,Wunderground v.1.15,2013-01-03 15:39:00,
2013-01-03 10:42:00,41.6,36.5,30.19,ENE,78,0.0,-999.0,82,0.00,,,0.00,Wunderground v.1.15,2013-01-03 15:42:00,
2013-01-03 10:45:00,41.6,36.5,30.18,ENE,76,2.0,-999.0,82,0.00,,,0.00,Wunderground v.1.15,2013-01-03 15:45:00,
2013-01-03 10:47:00,41.6,36.5,30.18,ENE,72,1.0,-999.0,82,0.00,,,0.00,Wunderground v.1.15,2013-01-03 15:47:00,
2013-01-03 10:50:00,41.7,36.6,30.18,East,82,1.0,-999.0,82,0.00,,,0.00,Wunderground v.1.15,2013-01-03 15:50:00,
2013-01-03 10:52:00,41.7,36.6,30.19,ENE,72,1.0,-999.0,82,0.00,,,0.00,Wunderground v.1.15,2013-01-03 15:52:00,
2013-01-03 10:53:00,41.7,36.6,30.19,ENE,72,2.0,-999.0,82,0.00,,,0.00,Wunderground v.1.15,2013-01-03 15:53:00,
2013-01-03 10:55:00,41.8,36.7,30.19,ENE,72,0.0,-999.0,82,0.00,,,0.00,Wunderground v.1.15,2013-01-03 15:55:00,
2013-01-03 10:58:00,41.9,36.8,30.18,NNE,24,2.0,-999.0,82,0.00,,,0.00,Wunderground v.1.15,2013-01-03 15:58:00,
2013-01-03 11:00:00,41.9,36.8,30.18,NNW,327,1.0,-999.0,82,0.00,,,0.00,Wunderground v.1.15,2013-01-03 16:00:00,
2013-01-03 11:03:00,42.0,36.9,30.18,NNE,20,1.0,-999.0,82,0.00,,,0.00,Wunderground v.1.15,2013-01-03 16:03:00,
2013-01-03 11:05:00,42.0,36.6,30.19,ENE,68,0.0,-999.0,81,0.00,,,0.00,Wunderground v.1.15,2013-01-03 16:05:00,
2013-01-03 11:08:00,42.0,36.9,30.19,East,84,1.0,-999.0,82,0.00,,,0.00,Wunderground v.1.15,2013-01-03 16:08:00,
2013-01-03 11:11:00,42.0,36.9,30.18,South,173,0.0,-999.0,82,0.00,,,0.00,Wunderground v.1.15,2013-01-03 16:11:00,
2013-01-03 11:13:00,42.1,36.7,30.18,East,83,1.0,-999.0,81,0.00,,,0.00,Wunderground v.1.15,2013-01-03 16:13:00,
2013-01-03 11:16:00,42.2,37.1,30.18,ENE,75,1.0,-999.0,82,0.00,,,0.00,Wunderground v.1.15,2013-01-03 16:16:00,
2013-01-03 11:18:00,42.2,36.8,30.17,ENE,65,0.0,-999.0,81,0.00,,,0.00,Wunderground v.1.15,2013-01-03 16:18:00,
2013-01-03 11:21:00,42.3,36.9,30.17,ENE,65,0.0,-999.0,81,0.00,,,0.00,Wunderground v.1.15,2013-01-03 16:21:00,
2013-01-03 11:23:00,42.5,37.4,30.17,SSE,155,0.0,-999.0,82,0.00,,,0.00,Wunderground v.1.15,2013-01-03 16:23:00,
2013-01-03 11:24:00,42.6,37.5,30.17,SSE,155,0.0,-999.0,82,0.00,,,0.00,Wunderground v.1.15,2013-01-03 16:24:00,
2013-01-03 11:26:00,42.8,37.1,30.16,ENE,57,2.0,-999.0,80,0.00,,,0.00,Wunderground v.1.15,2013-01-03 16:26:00,
2013-01-03 11:28:00,42.8,36.7,30.16,East,100,1.0,-999.0,79,0.00,,,0.00,Wunderground v.1.15,2013-01-03 16:28:00,
2013-01-03 11:29:00,42.8,36.7,30.16,East,101,0.0,-999.0,79,0.00,,,0.00,Wunderground v.1.15,2013-01-03 16:29:00,
2013-01-03 11:31:00,43.0,36.9,30.17,SSW,205,1.0,-999.0,79,0.00,,,0.00,Wunderground v.1.15,2013-01-03 16:31:00,
2013-01-03 11:33:00,43.0,36.6,30.16,SSW,210,0.0,-999.0,78,0.00,,,0.00,Wunderground v.1.15,2013-01-03 16:33:00,
2013-01-03 11:34:00,43.0,36.9,30.16,SSW,195,1.0,-999.0,79,0.00,,,0.00,Wunderground v.1.15,2013-01-03 16:34:00,
2013-01-03 11:36:00,43.1,36.7,30.16,SSE,152,2.0,-999.0,78,0.00,,,0.00,Wunderground v.1.15,2013-01-03 16:36:00,
2013-01-03 11:38:00,43.2,36.8,30.16,SE,144,0.0,-999.0,78,0.00,,,0.00,Wunderground v.1.15,2013-01-03 16:38:00,
2013-01-03 11:39:00,43.2,36.8,30.16,SE,143,0.0,-999.0,78,0.00,,,0.00,Wunderground v.1.15,2013-01-03 16:39:00,
2013-01-03 11:41:00,43.4,37.0,30.16,SSW,193,0.0,-999.0,78,0.00,,,0.00,Wunderground v.1.15,2013-01-03 16:41:00,
2013-01-03 11:44:00,43.5,36.4,30.16,ENE,59,1.0,-999.0,76,0.00,,,0.00,Wunderground v.1.15,2013-01-03 16:44:00,
2013-01-03 11:47:00,43.3,36.2,30.16,NNW,344,1.0,-999.0,76,0.00,,,0.00,Wunderground v.1.15,2013-01-03 16:47:00,
2013-01-03 11:49:00,43.3,36.6,30.16,ENE,68,1.0,-999.0,77,0.00,,,0.00,Wunderground v.1.15,2013-01-03 16:49:00,
2013-01-03 11:52:00,43.2,36.8,30.16,ENE,68,0.0,-999.0,78,0.00,,,0.00,Wunderground v.1.15,2013-01-03 16:52:00,
2013-01-03 11:54:00,43.3,36.9,30.16,ENE,72,0.0,-999.0,78,0.00,,,0.00,Wunderground v.1.15,2013-01-03 16:54:00,
2013-01-03 11:55:00,43.4,37.0,30.16,ESE,102,0.0,-999.0,78,0.00,,,0.00,Wunderground v.1.15,2013-01-03 16:55:00,
2013-01-03 11:57:00,43.6,36.9,30.16,ENE,70,1.0,-999.0,77,0.00,,,0.00,Wunderground v.1.15,2013-01-03 16:57:00,
2013-01-03 11:59:00,43.6,36.9,30.15,East,81,2.0,-999.0,77,0.00,,,0.00,Wunderground v.1.15,2013-01-03 16:59:00,
2013-01-03 12:00:00,43.6,36.9,30.15,ENE,78,1.0,-999.0,77,0.00,,,0.00,Wunderground v.1.15,2013-01-03 17:00:00,
2013-01-03 12:02:00,43.5,36.4,30.15,SSW,211,0.0,-999.0,76,0.00,,,0.00,Wunderground v.1.15,2013-01-03 17:02:00,
2013-01-03 12:04:00,43.6,36.5,30.15,ENE,60,0.0,-999.0,76,0.00,,,0.00,Wunderground v.1.15,2013-01-03 17:04:00,
2013-01-03 12:05:00,43.6,36.5,30.15,NNE,16,1.0,-999.0,76,0.00,,,0.00,Wunderground v.1.15,2013-01-03 17:05:00,
2013-01-03 12:07:00,43.7,36.3,30.15,SSW,205,0.0,-999.0,75,0.00,,,0.00,Wunderground v.1.15,2013-01-03 17:07:00,
2013-01-03 12:10:00,43.7,36.0,30.15,East,79,1.0,-999.0,74,0.00,,,0.00,Wunderground v.1.15,2013-01-03 17:10:00,
2013-01-03 12:13:00,43.7,36.0,30.15,NE,56,2.0,-999.0,74,0.00,,,0.00,Wunderground v.1.15,2013-01-03 17:13:00,
2013-01-03 12:15:00,43.7,36.0,30.15,ENE,65,2.0,-999.0,74,0.00,,,0.00,Wunderground v.1.15,2013-01-03 17:15:00,
2013-01-03 12:18:00,43.6,36.5,30.14,North,1,2.0,-999.0,76,0.00,,,0.00,Wunderground v.1.15,2013-01-03 17:18:00,
2013-01-03 12:20:00,43.6,36.2,30.14,NE,53,1.0,-999.0,75,0.00,,,0.00,Wunderground v.1.15,2013-01-03 17:20:00,
2013-01-03 12:23:00,43.7,36.0,30.14,ENE,68,1.0,-999.0,74,0.00,,,0.00,Wunderground v.1.15,2013-01-03 17:23:00,
2013-01-03 12:25:00,43.8,36.4,30.14,ESE,113,0.0,-999.0,75,0.00,,,0.00,Wunderground v.1.15,2013-01-03 17:25:00,
2013-01-03 12:26:00,43.8,36.0,30.14,ESE,113,0.0,-999.0,74,0.00,,,0.00,Wunderground v.1.15,2013-01-03 17:26:00,
2013-01-03 12:28:00,43.9,36.5,30.14,ESE,113,0.0,-999.0,75,0.00,,,0.00,Wunderground v.1.15,2013-01-03 17:28:00,
2013-01-03 12:30:00,44.0,36.2,30.14,East,79,0.0,-999.0,74,0.00,,,0.00,Wunderground v.1.15,2013-01-03 17:30:00,
2013-01-03 12:31:00,44.0,36.2,30.14,East,79,0.0,-999.0,74,0.00,,,0.00,Wunderground v.1.15,2013-01-03 17:31:00,
2013-01-03 12:33:00,44.1,36.3,30.14,East,79,1.0,-999.0,74,0.00,,,0.00,Wunderground v.1.15,2013-01-03 17:33:00,
2013-01-03 12:35:00,44.2,36.1,30.14,East,79,0.0,-999.0,73,0.00,,,0.00,Wunderground v.1.15,2013-01-03 17:35:00,
2013-01-03 12:36:00,44.2,36.1,30.14,SW,215,2.0,-999.0,73,0.00,,,0.00,Wunderground v.1.15,2013-01-03 17:36:00,
2013-01-03 12:39:00,44.1,36.0,30.14,SSW,203,3.0,-999.0,73,0.00,,,0.00,Wunderground v.1.15,2013-01-03 17:39:00,
2013-01-03 12:41:00,44.0,35.6,30.14,SSW,212,1.0,-999.0,72,0.00,,,0.00,Wunderground v.1.15,2013-01-03 17:41:00,
2013-01-03 12:44:00,44.0,35.9,30.14,SSW,208,1.0,-999.0,73,0.00,,,0.00,Wunderground v.1.15,2013-01-03 17:44:00,
2013-01-03 12:46:00,44.2,36.4,30.13,SE,144,1.0,-999.0,74,0.00,,,0.00,Wunderground v.1.15,2013-01-03 17:46:00,
2013-01-03 12:47:00,44.2,36.1,30.13,SE,131,1.0,-999.0,73,0.00,,,0.00,Wunderground v.1.15,2013-01-03 17:47:00,
2013-01-03 12:49:00,44.4,36.3,30.12,SE,129,0.0,-999.0,73,0.00,,,0.00,Wunderground v.1.15,2013-01-03 17:49:00,
2013-01-03 12:51:00,44.4,35.9,30.12,SW,221,0.0,-999.0,72,0.00,,,0.00,Wunderground v.1.15,2013-01-03 17:51:00,
2013-01-03 12:52:00,44.5,36.0,30.13,SW,221,0.0,-999.0,72,0.00,,,0.00,Wunderground v.1.15,2013-01-03 17:52:00,
2013-01-03 12:54:00,44.7,36.2,30.13,SW,219,0.0,-999.0,72,0.00,,,0.00,Wunderground v.1.15,2013-01-03 17:54:00,
2013-01-03 12:56:00,44.8,36.0,30.13,ESE,121,0.0,-999.0,71,0.00,,,0.00,Wunderground v.1.15,2013-01-03 17:56:00,
2013-01-03 12:57:00,44.9,36.1,30.13,ESE,121,0.0,-999.0,71,0.00,,,0.00,Wunderground v.1.15,2013-01-03 17:57:00,
2013-01-03 13:00:00,45.1,35.9,30.13,ESE,110,1.0,-999.0,70,0.00,,,0.00,Wunderground v.1.15,2013-01-03 18:00:00,
2013-01-03 13:01:00,45.1,35.9,30.13,ENE,63,4.0,-999.0,70,0.00,,,0.00,Wunderground v.1.15,2013-01-03 18:01:00,
2013-01-03 13:02:00,45.0,35.4,30.12,East,79,2.0,-999.0,69,0.00,,,0.00,Wunderground v.1.15,2013-01-03 18:02:00,
2013-01-03 13:05:00,44.8,35.6,30.12,East,79,2.0,-999.0,70,0.00,,,0.00,Wunderground v.1.15,2013-01-03 18:05:00,
2013-01-03 13:06:00,44.8,35.6,30.11,SE,130,1.0,-999.0,70,0.00,,,0.00,Wunderground v.1.15,2013-01-03 18:06:00,
2013-01-03 13:07:00,44.8,35.6,30.11,East,96,1.0,-999.0,70,0.00,,,0.00,Wunderground v.1.15,2013-01-03 18:07:00,
2013-01-03 13:10:00,45.0,36.2,30.11,South,180,1.0,-999.0,71,0.00,,,0.00,Wunderground v.1.15,2013-01-03 18:10:00,
2013-01-03 13:11:00,45.0,35.8,30.12,South,183,0.0,-999.0,70,0.00,,,0.00,Wunderground v.1.15,2013-01-03 18:11:00,
2013-01-03 13:12:00,45.1,35.9,30.12,ENE,57,1.0,-999.0,70,0.00,,,0.00,Wunderground v.1.15,2013-01-03 18:12:00,
2013-01-03 13:13:00,45.1,35.5,30.12,ENE,58,1.0,-999.0,69,0.00,,,0.00,Wunderground v.1.15,2013-01-03 18:13:00,
2013-01-03 13:15:00,45.1,35.9,30.12,ENE,65,1.0,-999.0,70,0.00,,,0.00,Wunderground v.1.15,2013-01-03 18:15:00,
2013-01-03 13:16:00,45.0,35.8,30.12,ENE,65,2.0,-999.0,70,0.00,,,0.00,Wunderground v.1.15,2013-01-03 18:16:00,
2013-01-03 13:18:00,45.1,36.3,30.12,ENE,77,2.0,-999.0,71,0.00,,,0.00,Wunderground v.1.15,2013-01-03 18:18:00,
2013-01-03 13:21:00,44.9,36.4,30.12,NE,41,0.0,-999.0,72,0.00,,,0.00,Wunderground v.1.15,2013-01-03 18:21:00,
2013-01-03 13:22:00,44.9,36.4,30.12,NE,40,1.0,-999.0,72,0.00,,,0.00,Wunderground v.1.15,2013-01-03 18:22:00,
2013-01-03 13:23:00,44.9,36.4,30.12,NE,40,0.0,-999.0,72,0.00,,,0.00,Wunderground v.1.15,2013-01-03 18:23:00,
2013-01-03 13:26:00,45.1,37.0,30.12,ENE,72,2.0,-999.0,73,0.00,,,0.00,Wunderground v.1.15,2013-01-03 18:26:00,
2013-01-03 13:27:00,45.1,36.6,30.12,ENE,72,0.0,-999.0,72,0.00,,,0.00,Wunderground v.1.15,2013-01-03 18:27:00,
2013-01-03 13:28:00,45.1,36.6,30.12,SE,145,1.0,-999.0,72,0.00,,,0.00,Wunderground v.1.15,2013-01-03 18:28:00,
2013-01-03 13:31:00,45.2,36.0,30.12,SSW,203,0.0,-999.0,70,0.00,,,0.00,Wunderground v.1.15,2013-01-03 18:31:00,
2013-01-03 13:32:00,45.2,36.4,30.12,SSW,203,0.0,-999.0,71,0.00,,,0.00,Wunderground v.1.15,2013-01-03 18:32:00,
2013-01-03 13:33:00,45.3,36.8,30.12,SE,136,1.0,-999.0,72,0.00,,,0.00,Wunderground v.1.15,2013-01-03 18:33:00,
2013-01-03 13:34:00,45.3,36.4,30.12,SE,130,1.0,-999.0,71,0.00,,,0.00,Wunderground v.1.15,2013-01-03 18:34:00,
2013-01-03 13:36:00,45.3,36.1,30.12,SW,236,1.0,-999.0,70,0.00,,,0.00,Wunderground v.1.15,2013-01-03 18:36:00,
2013-01-03 13:37:00,45.3,36.1,30.12,SW,236,0.0,-999.0,70,0.00,,,0.00,Wunderground v.1.15,2013-01-03 18:37:00,
2013-01-03 13:38:00,45.4,36.5,30.12,SW,235,0.0,-999.0,71,0.00,,,0.00,Wunderground v.1.15,2013-01-03 18:38:00,
2013-01-03 13:39:00,45.4,36.5,30.12,SW,235,1.0,-999.0,71,0.00,,,0.00,Wunderground v.1.15,2013-01-03 18:39:00,
2013-01-03 13:41:00,45.6,36.7,30.13,SW,219,0.0,-999.0,71,0.00,,,0.00,Wunderground v.1.15,2013-01-03 18:41:00,
2013-01-03 13:42:00,45.6,36.7,30.13,SW,219,0.0,-999.0,71,0.00,,,0.00,Wunderground v.1.15,2013-01-03 18:42:00,
2013-01-03 13:43:00,45.7,36.8,30.12,WNW,300,1.0,-999.0,71,0.00,,,0.00,Wunderground v.1.15,2013-01-03 18:43:00,
2013-01-03 13:44:00,45.7,36.8,30.12,NNW,340,1.0,-999.0,71,0.00,,,0.00,Wunderground v.1.15,2013-01-03 18:44:00,
2013-01-03 13:46:00,46.0,36.8,30.12,SW,219,1.0,-999.0,70,0.00,,,0.00,Wunderground v.1.15,2013-01-03 18:46:00,
2013-01-03 13:47:00,46.0,36.8,30.12,SW,221,1.0,-999.0,70,0.00,,,0.00,Wunderground v.1.15,2013-01-03 18:47:00,
2013-01-03 13:48:00,46.0,36.4,30.11,SSW,211,1.0,-999.0,69,0.00,,,0.00,Wunderground v.1.15,2013-01-03 18:48:00,
2013-01-03 13:49:00,46.0,36.4,30.11,SW,214,2.0,-999.0,69,0.00,,,0.00,Wunderground v.1.15,2013-01-03 18:49:00,
2013-01-03 13:52:00,45.8,35.8,30.12,SSW,203,1.0,-999.0,68,0.00,,,0.00,Wunderground v.1.15,2013-01-03 18:52:00,
2013-01-03 13:53:00,45.6,35.6,30.12,SSW,198,0.0,-999.0,68,0.00,,,0.00,Wunderground v.1.15,2013-01-03 18:53:00,
2013-01-03 13:54:00,45.6,35.6,30.12,SSW,198,0.0,-999.0,68,0.00,,,0.00,Wunderground v.1.15,2013-01-03 18:54:00,
2013-01-03 14:00:00,45.8,35.8,30.12,SW,231,0.0,-999.0,68,0.00,,,0.00,Wunderground v.1.15,2013-01-03 19:00:00,
2013-01-03 14:04:00,45.9,35.9,30.12,SSW,195,0.0,-999.0,68,0.00,,,0.00,Wunderground v.1.15,2013-01-03 19:04:00,
2013-01-03 14:06:00,46.0,36.0,30.12,SSW,210,0.0,-999.0,68,0.00,,,0.00,Wunderground v.1.15,2013-01-03 19:06:00,
2013-01-03 14:08:00,46.1,35.7,30.12,South,190,1.0,-999.0,67,0.00,,,0.00,Wunderground v.1.15,2013-01-03 19:08:00,
2013-01-03 14:10:00,46.1,36.1,30.12,South,190,0.0,-999.0,68,0.00,,,0.00,Wunderground v.1.15,2013-01-03 19:10:00,
2013-01-03 14:11:00,46.1,35.7,30.12,South,190,0.0,-999.0,67,0.00,,,0.00,Wunderground v.1.15,2013-01-03 19:11:00,
2013-01-03 14:14:00,46.2,35.8,30.12,South,190,0.0,-999.0,67,0.00,,,0.00,Wunderground v.1.15,2013-01-03 19:14:00,
2013-01-03 14:15:00,46.3,35.9,30.12,South,190,0.0,-999.0,67,0.00,,,0.00,Wunderground v.1.15,2013-01-03 19:15:00,
2013-01-03 14:18:00,46.4,36.0,30.12,South,190,0.0,-999.0,67,0.00,,,0.00,Wunderground v.1.15,2013-01-03 19:18:00,
2013-01-03 14:53:00,45.8,35.8,30.12,WNW,295,1.0,-999.0,68,0.00,,,0.00,Wunderground v.1.15,2013-01-03 19:53:00,
2013-01-03 14:55:00,45.7,35.7,30.12,WNW,295,0.0,-999.0,68,0.00,,,0.00,Wunderground v.1.15,2013-01-03 19:55:00,
2013-01-03 14:59:00,45.7,36.1,30.12,WNW,295,0.0,-999.0,69,0.00,,,0.00,Wunderground v.1.15,2013-01-03 19:59:00,
2013-01-03 15:00:00,45.8,36.2,30.12,WNW,295,0.0,-999.0,69,0.00,,,0.00,Wunderground v.1.15,2013-01-03 20:00:00,
2013-01-03 15:01:00,45.8,36.2,30.12,WNW,295,1.0,-999.0,69,0.00,,,0.00,Wunderground v.1.15,2013-01-03 20:01:00,
2013-01-03 15:05:00,45.8,35.8,30.13,WNW,295,0.0,-999.0,68,0.00,,,0.00,Wunderground v.1.15,2013-01-03 20:05:00,
2013-01-03 15:06:00,45.7,36.1,30.13,WNW,295,1.0,-999.0,69,0.00,,,0.00,Wunderground v.1.15,2013-01-03 20:06:00,
2013-01-03 15:07:00,45.7,35.7,30.13,WNW,295,0.0,-999.0,68,0.00,,,0.00,Wunderground v.1.15,2013-01-03 20:07:00,
2013-01-03 15:13:00,45.6,36.4,30.13,SSW,203,0.0,-999.0,70,0.00,,,0.00,Wunderground v.1.15,2013-01-03 20:13:00,
2013-01-03 15:14:00,45.7,36.1,30.13,SSW,203,0.0,-999.0,69,0.00,,,0.00,Wunderground v.1.15,2013-01-03 20:14:00,
2013-01-03 15:16:00,45.7,36.5,30.13,West,263,0.0,-999.0,70,0.00,,,0.00,Wunderground v.1.15,2013-01-03 20:16:00,
2013-01-03 15:18:00,45.7,36.1,30.13,WSW,239,0.0,-999.0,69,0.00,,,0.00,Wunderground v.1.15,2013-01-03 20:18:00,
2013-01-03 15:21:00,45.7,36.5,30.14,WSW,239,0.0,-999.0,70,0.00,,,0.00,Wunderground v.1.15,2013-01-03 20:21:00,
2013-01-03 15:23:00,45.7,36.5,30.14,WSW,238,0.0,-999.0,70,0.00,,,0.00,Wunderground v.1.15,2013-01-03 20:23:00,
2013-01-03 15:25:00,45.7,36.5,30.14,WSW,237,0.0,-999.0,70,0.00,,,0.00,Wunderground v.1.15,2013-01-03 20:25:00,
2013-01-03 15:27:00,45.7,36.8,30.14,WSW,258,0.0,-999.0,71,0.00,,,0.00,Wunderground v.1.15,2013-01-03 20:27:00,
2013-01-03 15:28:00,45.7,36.8,30.14,SSW,212,0.0,-999.0,71,0.00,,,0.00,Wunderground v.1.15,2013-01-03 20:28:00,
2013-01-03 15:30:00,45.6,36.7,30.14,SW,217,1.0,-999.0,71,0.00,,,0.00,Wunderground v.1.15,2013-01-03 20:30:00,
2013-01-03 15:32:00,45.6,36.7,30.14,WNW,288,0.0,-999.0,71,0.00,,,0.00,Wunderground v.1.15,2013-01-03 20:32:00,
2013-01-03 15:33:00,45.5,36.6,30.14,WSW,240,1.0,-999.0,71,0.00,,,0.00,Wunderground v.1.15,2013-01-03 20:33:00,
2013-01-03 15:35:00,45.4,36.9,30.14,SW,233,0.0,-999.0,72,0.00,,,0.00,Wunderground v.1.15,2013-01-03 20:35:00,
2013-01-03 15:37:00,45.4,36.9,30.14,WSW,247,0.0,-999.0,72,0.00,,,0.00,Wunderground v.1.15,2013-01-03 20:37:00,
2013-01-03 15:38:00,45.4,36.9,30.14,West,274,0.0,-999.0,72,0.00,,,0.00,Wunderground v.1.15,2013-01-03 20:38:00,
2013-01-03 15:40:00,45.4,36.9,30.14,West,274,0.0,-999.0,72,0.00,,,0.00,Wunderground v.1.15,2013-01-03 20:40:00,
2013-01-03 15:42:00,45.4,37.2,30.14,SSW,207,1.0,-999.0,73,0.00,,,0.00,Wunderground v.1.15,2013-01-03 20:42:00,
2013-01-03 15:43:00,45.3,36.8,30.14,SSW,207,0.0,-999.0,72,0.00,,,0.00,Wunderground v.1.15,2013-01-03 20:43:00,
2013-01-03 15:45:00,45.3,36.8,30.14,SSW,207,0.0,-999.0,72,0.00,,,0.00,Wunderground v.1.15,2013-01-03 20:45:00,
2013-01-03 15:48:00,45.3,37.2,30.15,SW,233,1.0,-999.0,73,0.00,,,0.00,Wunderground v.1.15,2013-01-03 20:48:00,
2013-01-03 15:49:00,45.3,36.8,30.15,WSW,247,0.0,-999.0,72,0.00,,,0.00,Wunderground v.1.15,2013-01-03 20:49:00,
2013-01-03 15:50:00,45.3,37.2,30.15,NNE,13,0.0,-999.0,73,0.00,,,0.00,Wunderground v.1.15,2013-01-03 20:50:00,
2013-01-03 15:53:00,45.2,36.7,30.15,NNW,344,0.0,-999.0,72,0.00,,,0.00,Wunderground v.1.15,2013-01-03 20:53:00,
2013-01-03 15:55:00,45.2,36.7,30.15,West,259,1.0,-999.0,72,0.00,,,0.00,Wunderground v.1.15,2013-01-03 20:55:00,
2013-01-03 15:58:00,45.1,36.6,30.15,WSW,252,0.0,-999.0,72,0.00,,,0.00,Wunderground v.1.15,2013-01-03 20:58:00,
2013-01-03 15:59:00,45.1,36.6,30.15,SW,232,1.0,-999.0,72,0.00,,,0.00,Wunderground v.1.15,2013-01-03 20:59:00,
2013-01-03 16:00:00,45.1,36.6,30.15,WSW,256,1.0,-999.0,72,0.00,,,0.00,Wunderground v.1.15,2013-01-03 21:00:00,
2013-01-03 16:03:00,45.0,36.9,30.15,WSW,255,0.0,-999.0,73,0.00,,,0.00,Wunderground v.1.15,2013-01-03 21:03:00,
2013-01-03 16:04:00,45.0,36.9,30.15,SW,236,0.0,-999.0,73,0.00,,,0.00,Wunderground v.1.15,2013-01-03 21:04:00,
2013-01-03 16:06:00,45.0,36.9,30.15,WSW,240,0.0,-999.0,73,0.00,,,0.00,Wunderground v.1.15,2013-01-03 21:06:00,
2013-01-03 16:08:00,44.9,36.8,30.15,West,276,0.0,-999.0,73,0.00,,,0.00,Wunderground v.1.15,2013-01-03 21:08:00,
2013-01-03 16:09:00,44.9,36.8,30.15,West,276,0.0,-999.0,73,0.00,,,0.00,Wunderground v.1.15,2013-01-03 21:09:00,
2013-01-03 16:11:00,44.9,36.8,30.15,NNW,340,0.0,-999.0,73,0.00,,,0.00,Wunderground v.1.15,2013-01-03 21:11:00,
2013-01-03 16:13:00,44.9,36.8,30.15,NNW,333,0.0,-999.0,73,0.00,,,0.00,Wunderground v.1.15,2013-01-03 21:13:00,
2013-01-03 16:14:00,44.9,36.8,30.15,NNW,333,0.0,-999.0,73,0.00,,,0.00,Wunderground v.1.15,2013-01-03 21:14:00,
2013-01-03 16:16:00,44.9,37.1,30.15,WNW,300,0.0,-999.0,74,0.00,,,0.00,Wunderground v.1.15,2013-01-03 21:16:00,
2013-01-03 16:18:00,44.9,37.1,30.16,WNW,299,0.0,-999.0,74,0.00,,,0.00,Wunderground v.1.15,2013-01-03 21:18:00,
2013-01-03 16:19:00,44.9,37.1,30.16,WNW,299,0.0,-999.0,74,0.00,,,0.00,Wunderground v.1.15,2013-01-03 21:19:00,
2013-01-03 16:22:00,44.8,37.0,30.16,NNE,25,0.0,-999.0,74,0.00,,,0.00,Wunderground v.1.15,2013-01-03 21:22:00,
2013-01-03 16:24:00,44.8,37.0,30.16,NNE,26,0.0,-999.0,74,0.00,,,0.00,Wunderground v.1.15,2013-01-03 21:24:00,
2013-01-03 16:27:00,44.8,37.0,30.16,NNE,22,0.0,-999.0,74,0.00,,,0.00,Wunderground v.1.15,2013-01-03 21:27:00,
2013-01-03 16:29:00,44.7,36.9,30.16,WSW,252,0.0,-999.0,74,0.00,,,0.00,Wunderground v.1.15,2013-01-03 21:29:00,
2013-01-03 16:30:00,44.7,36.9,30.16,WSW,252,0.0,-999.0,74,0.00,,,0.00,Wunderground v.1.15,2013-01-03 21:30:00,
2013-01-03 16:32:00,44.7,36.9,30.16,WSW,252,0.0,-999.0,74,0.00,,,0.00,Wunderground v.1.15,2013-01-03 21:32:00,
2013-01-03 16:34:00,44.7,36.9,30.16,WSW,250,0.0,-999.0,74,0.00,,,0.00,Wunderground v.1.15,2013-01-03 21:34:00,
2013-01-03 16:35:00,44.7,37.3,30.16,WSW,252,0.0,-999.0,75,0.00,,,0.00,Wunderground v.1.15,2013-01-03 21:35:00,
2013-01-03 16:37:00,44.7,37.3,30.16,WSW,250,0.0,-999.0,75,0.00,,,0.00,Wunderground v.1.15,2013-01-03 21:37:00,
2013-01-03 16:39:00,44.7,37.3,30.16,NNW,334,1.0,-999.0,75,0.00,,,0.00,Wunderground v.1.15,2013-01-03 21:39:00,
2013-01-03 16:40:00,44.6,37.2,30.16,ENE,63,1.0,-999.0,75,0.00,,,0.00,Wunderground v.1.15,2013-01-03 21:40:00,
2013-01-03 16:42:00,44.6,37.2,30.16,NNW,332,1.0,-999.0,75,0.00,,,0.00,Wunderground v.1.15,2013-01-03 21:42:00,
2013-01-03 16:44:00,44.5,37.1,30.16,NNW,333,0.0,-999.0,75,0.00,,,0.00,Wunderground v.1.15,2013-01-03 21:44:00,
2013-01-03 16:45:00,44.5,37.1,30.16,NNW,333,0.0,-999.0,75,0.00,,,0.00,Wunderground v.1.15,2013-01-03 21:45:00,
2013-01-03 16:49:00,44.4,37.0,30.16,NNW,332,0.0,-999.0,75,0.00,,,0.00,Wunderground v.1.15,2013-01-03 21:49:00,
2013-01-03 16:50:00,44.4,37.0,30.16,NNW,332,1.0,-999.0,75,0.00,,,0.00,Wunderground v.1.15,2013-01-03 21:50:00,
2013-01-03 16:54:00,44.3,36.9,30.16,SW,236,0.0,-999.0,75,0.00,,,0.00,Wunderground v.1.15,2013-01-03 21:54:00,
2013-01-03 16:55:00,44.3,36.9,30.15,NNE,25,2.0,-999.0,75,0.00,,,0.00,Wunderground v.1.15,2013-01-03 21:55:00,
2013-01-03 16:56:00,44.3,36.9,30.15,NNE,25,0.0,-999.0,75,0.00,,,0.00,Wunderground v.1.15,2013-01-03 21:56:00,
2013-01-03 16:59:00,44.2,37.1,30.16,NNE,24,2.0,-999.0,76,0.00,,,0.00,Wunderground v.1.15,2013-01-03 21:59:00,
2013-01-03 17:00:00,44.2,36.8,30.16,NNE,23,0.0,-999.0,75,0.00,,,0.00,Wunderground v.1.15,2013-01-03 22:00:00,
2013-01-03 17:01:00,44.2,36.8,30.15,NNE,23,0.0,-999.0,75,0.00,,,0.00,Wunderground v.1.15,2013-01-03 22:01:00,
2013-01-03 17:04:00,44.1,37.0,30.15,North,5,1.0,-999.0,76,0.00,,,0.00,Wunderground v.1.15,2013-01-03 22:04:00,
2013-01-03 17:05:00,44.1,37.0,30.15,North,359,1.0,-999.0,76,0.00,,,0.00,Wunderground v.1.15,2013-01-03 22:05:00,
2013-01-03 17:06:00,44.1,37.0,30.15,North,358,0.0,-999.0,76,0.00,,,0.00,Wunderground v.1.15,2013-01-03 22:06:00,
2013-01-03 17:09:00,44.1,37.3,30.16,North,359,0.0,-999.0,77,0.00,,,0.00,Wunderground v.1.15,2013-01-03 22:09:00,
2013-01-03 17:10:00,44.1,37.3,30.16,North,359,0.0,-999.0,77,0.00,,,0.00,Wunderground v.1.15,2013-01-03 22:10:00,
2013-01-03 17:11:00,44.0,37.3,30.16,North,359,0.0,-999.0,77,0.00,,,0.00,Wunderground v.1.15,2013-01-03 22:11:00,
2013-01-03 17:14:00,44.0,37.3,30.15,North,359,0.0,-999.0,77,0.00,,,0.00,Wunderground v.1.15,2013-01-03 22:14:00,
2013-01-03 17:15:00,44.0,37.3,30.15,North,358,0.0,-999.0,77,0.00,,,0.00,Wunderground v.1.15,2013-01-03 22:15:00,
2013-01-03 17:16:00,44.0,37.3,30.16,North,359,0.0,-999.0,77,0.00,,,0.00,Wunderground v.1.15,2013-01-03 22:16:00,
2013-01-03 17:19:00,44.0,37.6,30.16,North,3,3.0,-999.0,78,0.00,,,0.00,Wunderground v.1.15,2013-01-03 22:19:00,
2013-01-03 17:20:00,43.9,37.2,30.16,North,4,2.0,-999.0,77,0.00,,,0.00,Wunderground v.1.15,2013-01-03 22:20:00,
2013-01-03 17:21:00,43.9,37.2,30.16,North,3,0.0,-999.0,77,0.00,,,0.00,Wunderground v.1.15,2013-01-03 22:21:00,
2013-01-03 17:22:00,43.9,37.5,30.16,North,4,1.0,-999.0,78,0.00,,,0.00,Wunderground v.1.15,2013-01-03 22:22:00,
2013-01-03 17:24:00,43.8,37.4,30.16,North,356,1.0,-999.0,78,0.00,,,0.00,Wunderground v.1.15,2013-01-03 22:24:00,
2013-01-03 17:25:00,43.8,37.4,30.16,North,356,1.0,-999.0,78,0.00,,,0.00,Wunderground v.1.15,2013-01-03 22:25:00,
2013-01-03 17:27:00,43.8,37.4,30.16,North,356,1.0,-999.0,78,0.00,,,0.00,Wunderground v.1.15,2013-01-03 22:27:00,
2013-01-03 17:30:00,43.7,37.3,30.16,North,11,1.0,-999.0,78,0.00,,,0.00,Wunderground v.1.15,2013-01-03 22:30:00,
2013-01-03 17:32:00,43.6,37.5,30.16,NNE,23,1.0,-999.0,79,0.00,,,0.00,Wunderground v.1.15,2013-01-03 22:32:00,
2013-01-03 17:35:00,43.5,37.4,30.16,NNW,335,2.0,-999.0,79,0.00,,,0.00,Wunderground v.1.15,2013-01-03 22:35:00,
2013-01-03 17:37:00,43.5,37.4,30.16,North,10,1.0,-999.0,79,0.00,,,0.00,Wunderground v.1.15,2013-01-03 22:37:00,
2013-01-03 17:40:00,43.5,37.4,30.16,NNE,29,1.0,-999.0,79,0.00,,,0.00,Wunderground v.1.15,2013-01-03 22:40:00,
2013-01-03 17:43:00,43.4,37.3,30.16,NNE,25,1.0,-999.0,79,0.00,,,0.00,Wunderground v.1.15,2013-01-03 22:43:00,
2013-01-03 17:46:00,43.3,37.5,30.16,NNE,30,1.0,-999.0,80,0.00,,,0.00,Wunderground v.1.15,2013-01-03 22:46:00,
2013-01-03 17:51:00,43.1,37.3,30.17,NE,37,2.0,-999.0,80,0.00,,,0.00,Wunderground v.1.15,2013-01-03 22:51:00,
2013-01-03 17:52:00,43.1,37.3,30.17,NE,35,1.0,-999.0,80,0.00,,,0.00,Wunderground v.1.15,2013-01-03 22:52:00,
2013-01-03 17:53:00,43.0,37.6,30.17,NNW,348,2.0,-999.0,81,0.00,,,0.00,Wunderground v.1.15,2013-01-03 22:53:00,
2013-01-03 17:56:00,43.0,37.6,30.17,NE,49,3.0,-999.0,81,0.00,,,0.00,Wunderground v.1.15,2013-01-03 22:56:00,
2013-01-03 18:00:00,42.8,37.4,30.17,NE,40,0.0,-999.0,81,0.00,,,0.00,Wunderground v.1.15,2013-01-03 23:00:00,
2013-01-03 18:01:00,42.8,37.4,30.17,NE,40,1.0,-999.0,81,0.00,,,0.00,Wunderground v.1.15,2013-01-03 23:01:00,
2013-01-03 18:02:00,42.8,37.7,30.17,NE,40,2.0,-999.0,82,0.00,,,0.00,Wunderground v.1.15,2013-01-03 23:02:00,
2013-01-03 18:06:00,42.7,37.6,30.17,NNE,13,1.0,-999.0,82,0.00,,,0.00,Wunderground v.1.15,2013-01-03 23:06:00,
2013-01-03 18:08:00,42.7,37.9,30.17,North,4,2.0,-999.0,83,0.00,,,0.00,Wunderground v.1.15,2013-01-03 23:08:00,
2013-01-03 18:11:00,42.5,37.4,30.17,NW,319,1.0,-999.0,82,0.00,,,0.00,Wunderground v.1.15,2013-01-03 23:11:00,
2013-01-03 18:12:00,42.5,37.7,30.17,NW,321,1.0,-999.0,83,0.00,,,0.00,Wunderground v.1.15,2013-01-03 23:12:00,
2013-01-03 18:13:00,42.5,37.7,30.17,NW,321,1.0,-999.0,83,0.00,,,0.00,Wunderground v.1.15,2013-01-03 23:13:00,
2013-01-03 18:16:00,42.4,37.6,30.18,NNW,335,1.0,-999.0,83,0.00,,,0.00,Wunderground v.1.15,2013-01-03 23:16:00,
2013-01-03 18:17:00,42.4,37.6,30.18,North,349,1.0,-999.0,83,0.00,,,0.00,Wunderground v.1.15,2013-01-03 23:17:00,
2013-01-03 18:18:00,42.4,37.6,30.18,North,349,1.0,-999.0,83,0.00,,,0.00,Wunderground v.1.15,2013-01-03 23:18:00,
2013-01-03 18:21:00,42.3,37.5,30.19,NW,323,0.0,-999.0,83,0.00,,,0.00,Wunderground v.1.15,2013-01-03 23:21:00,
2013-01-03 18:22:00,42.3,37.8,30.19,NW,323,0.0,-999.0,84,0.00,,,0.00,Wunderground v.1.15,2013-01-03 23:22:00,
2013-01-03 18:23:00,42.3,37.8,30.19,NNW,335,2.0,-999.0,84,0.00,,,0.00,Wunderground v.1.15,2013-01-03 23:23:00,
2013-01-03 18:26:00,42.2,37.7,30.19,NW,323,1.0,-999.0,84,0.00,,,0.00,Wunderground v.1.15,2013-01-03 23:26:00,
2013-01-03 18:27:00,42.2,37.7,30.18,NNW,340,1.0,-999.0,84,0.00,,,0.00,Wunderground v.1.15,2013-01-03 23:27:00,
2013-01-03 18:28:00,42.2,37.7,30.18,NNW,340,0.0,-999.0,84,0.00,,,0.00,Wunderground v.1.15,2013-01-03 23:28:00,
2013-01-03 18:31:00,42.2,37.7,30.19,NNE,13,1.0,-999.0,84,0.00,,,0.00,Wunderground v.1.15,2013-01-03 23:31:00,
2013-01-03 18:32:00,42.2,37.7,30.18,NNE,13,0.0,-999.0,84,0.00,,,0.00,Wunderground v.1.15,2013-01-03 23:32:00,
2013-01-03 18:33:00,42.2,37.7,30.19,NNE,13,1.0,-999.0,84,0.00,,,0.00,Wunderground v.1.15,2013-01-03 23:33:00,
2013-01-03 18:37:00,42.1,37.6,30.18,North,1,0.0,-999.0,84,0.00,,,0.00,Wunderground v.1.15,2013-01-03 23:37:00,
2013-01-03 18:38:00,42.1,37.6,30.19,NNE,27,1.0,-999.0,84,0.00,,,0.00,Wunderground v.1.15,2013-01-03 23:38:00,
2013-01-03 18:42:00,42.0,37.8,30.19,North,9,1.0,-999.0,85,0.00,,,0.00,Wunderground v.1.15,2013-01-03 23:42:00,
2013-01-03 18:43:00,41.9,37.7,30.19,North,354,0.0,-999.0,85,0.00,,,0.00,Wunderground v.1.15,2013-01-03 23:43:00,
2013-01-03 18:47:00,41.9,37.7,30.19,NW,310,2.0,-999.0,85,0.00,,,0.00,Wunderground v.1.15,2013-01-03 23:47:00,
2013-01-03 18:48:00,41.9,37.7,30.19,North,355,0.0,-999.0,85,0.00,,,0.00,Wunderground v.1.15,2013-01-03 23:48:00,
2013-01-03 18:49:00,41.9,37.7,30.19,North,355,0.0,-999.0,85,0.00,,,0.00,Wunderground v.1.15,2013-01-03 23:49:00,
2013-01-03 18:52:00,41.8,37.6,30.19,North,355,0.0,-999.0,85,0.00,,,0.00,Wunderground v.1.15,2013-01-03 23:52:00,
2013-01-03 18:53:00,41.8,37.6,30.19,North,355,0.0,-999.0,85,0.00,,,0.00,Wunderground v.1.15,2013-01-03 23:53:00,
2013-01-03 18:54:00,41.8,37.6,30.19,North,355,0.0,-999.0,85,0.00,,,0.00,Wunderground v.1.15,2013-01-03 23:54:00,
2013-01-03 18:58:00,41.7,37.8,30.19,North,355,0.0,-999.0,86,0.00,,,0.00,Wunderground v.1.15,2013-01-03 23:58:00,
2013-01-03 18:59:00,41.7,37.8,30.19,North,355,0.0,-999.0,86,0.00,,,0.00,Wunderground v.1.15,2013-01-03 23:59:00,
2013-01-03 19:03:00,41.6,37.7,30.19,North,355,0.0,-999.0,86,0.00,,,0.00,Wunderground v.1.15,2013-01-04 00:03:00,
2013-01-03 19:04:00,41.5,37.6,30.19,North,355,0.0,-999.0,86,0.00,,,0.00,Wunderground v.1.15,2013-01-04 00:04:00,
2013-01-03 19:08:00,41.4,37.5,30.19,North,355,0.0,-999.0,86,0.00,,,0.00,Wunderground v.1.15,2013-01-04 00:08:00,
2013-01-03 19:09:00,41.4,37.5,30.19,North,355,0.0,-999.0,86,0.00,,,0.00,Wunderground v.1.15,2013-01-04 00:09:00,
2013-01-03 19:13:00,41.2,37.3,30.19,North,355,0.0,-999.0,86,0.00,,,0.00,Wunderground v.1.15,2013-01-04 00:13:00,
2013-01-03 19:14:00,41.2,37.3,30.19,North,355,0.0,-999.0,86,0.00,,,0.00,Wunderground v.1.15,2013-01-04 00:14:00,
2013-01-03 19:18:00,40.9,37.0,30.19,North,355,0.0,-999.0,86,0.00,,,0.00,Wunderground v.1.15,2013-01-04 00:18:00,
2013-01-03 19:19:00,40.9,37.0,30.19,North,355,0.0,-999.0,86,0.00,,,0.00,Wunderground v.1.15,2013-01-04 00:19:00,
2013-01-03 19:24:00,40.7,37.1,30.19,North,355,0.0,-999.0,87,0.00,,,0.00,Wunderground v.1.15,2013-01-04 00:24:00,
2013-01-03 19:28:00,40.4,37.1,30.19,North,355,0.0,-999.0,88,0.00,,,0.00,Wunderground v.1.15,2013-01-04 00:28:00,
2013-01-03 19:29:00,40.4,37.1,30.19,North,355,0.0,-999.0,88,0.00,,,0.00,Wunderground v.1.15,2013-01-04 00:29:00,
2013-01-03 19:33:00,40.0,36.7,30.19,North,355,0.0,-999.0,88,0.00,,,0.00,Wunderground v.1.15,2013-01-04 00:33:00,
2013-01-03 19:34:00,40.0,36.7,30.19,North,355,0.0,-999.0,88,0.00,,,0.00,Wunderground v.1.15,2013-01-04 00:34:00,
2013-01-03 19:38:00,39.7,36.4,30.19,North,355,0.0,-999.0,88,0.00,,,0.00,Wunderground v.1.15,2013-01-04 00:38:00,
2013-01-03 19:39:00,39.6,36.3,30.19,North,355,0.0,-999.0,88,0.00,,,0.00,Wunderground v.1.15,2013-01-04 00:39:00,
2013-01-03 19:40:00,39.6,36.3,30.19,North,355,0.0,-999.0,88,0.00,,,0.00,Wunderground v.1.15,2013-01-04 00:40:00,
2013-01-03 19:44:00,39.3,36.3,30.19,North,355,0.0,-999.0,89,0.00,,,0.00,Wunderground v.1.15,2013-01-04 00:44:00,
2013-01-03 19:45:00,39.3,36.3,30.19,North,355,0.0,-999.0,89,0.00,,,0.00,Wunderground v.1.15,2013-01-04 00:45:00,
2013-01-03 19:49:00,39.0,36.3,30.20,North,355,0.0,-999.0,90,0.00,,,0.00,Wunderground v.1.15,2013-01-04 00:49:00,
2013-01-03 19:50:00,39.0,36.3,30.20,North,355,0.0,-999.0,90,0.00,,,0.00,Wunderground v.1.15,2013-01-04 00:50:00,
2013-01-03 19:54:00,38.7,36.0,30.20,North,355,0.0,-999.0,90,0.00,,,0.00,Wunderground v.1.15,2013-01-04 00:54:00,
2013-01-03 19:55:00,38.7,36.0,30.20,North,355,0.0,-999.0,90,0.00,,,0.00,Wunderground v.1.15,2013-01-04 00:55:00,
2013-01-03 19:59:00,38.4,36.0,30.20,North,355,0.0,-999.0,91,0.00,,,0.00,Wunderground v.1.15,2013-01-04 00:59:00,
2013-01-03 20:00:00,38.3,35.9,30.20,North,355,0.0,-999.0,91,0.00,,,0.00,Wunderground v.1.15,2013-01-04 01:00:00,
2013-01-03 20:04:00,38.1,35.7,30.20,North,355,0.0,-999.0,91,0.00,,,0.00,Wunderground v.1.15,2013-01-04 01:04:00,
2013-01-03 20:05:00,38.1,35.7,30.20,North,355,0.0,-999.0,91,0.00,,,0.00,Wunderground v.1.15,2013-01-04 01:05:00,
2013-01-03 20:09:00,37.8,35.4,30.20,North,355,0.0,-999.0,91,0.00,,,0.00,Wunderground v.1.15,2013-01-04 01:09:00,
2013-01-03 20:10:00,37.8,35.4,30.20,North,355,0.0,-999.0,91,0.00,,,0.00,Wunderground v.1.15,2013-01-04 01:10:00,
2013-01-03 20:14:00,37.5,35.1,30.20,North,355,0.0,-999.0,91,0.00,,,0.00,Wunderground v.1.15,2013-01-04 01:14:00,
2013-01-03 20:15:00,37.5,35.1,30.20,North,355,0.0,-999.0,91,0.00,,,0.00,Wunderground v.1.15,2013-01-04 01:15:00,
2013-01-03 20:19:00,37.3,35.2,30.20,North,355,0.0,-999.0,92,0.00,,,0.00,Wunderground v.1.15,2013-01-04 01:19:00,
2013-01-03 20:20:00,37.3,35.2,30.20,North,356,0.0,-999.0,92,0.00,,,0.00,Wunderground v.1.15,2013-01-04 01:20:00,
2013-01-03 20:21:00,37.3,35.2,30.20,North,355,0.0,-999.0,92,0.00,,,0.00,Wunderground v.1.15,2013-01-04 01:21:00,
2013-01-03 20:24:00,37.1,35.0,30.20,North,355,0.0,-999.0,92,0.00,,,0.00,Wunderground v.1.15,2013-01-04 01:24:00,
2013-01-03 20:25:00,37.0,34.9,30.20,North,355,0.0,-999.0,92,0.00,,,0.00,Wunderground v.1.15,2013-01-04 01:25:00,
2013-01-03 20:26:00,36.9,34.8,30.20,North,355,0.0,-999.0,92,0.00,,,0.00,Wunderground v.1.15,2013-01-04 01:26:00,
2013-01-03 20:29:00,36.7,34.6,30.20,North,355,0.0,-999.0,92,0.00,,,0.00,Wunderground v.1.15,2013-01-04 01:29:00,
2013-01-03 20:30:00,36.7,34.6,30.20,North,355,0.0,-999.0,92,0.00,,,0.00,Wunderground v.1.15,2013-01-04 01:30:00,
2013-01-03 20:31:00,36.7,34.6,30.20,North,355,0.0,-999.0,92,0.00,,,0.00,Wunderground v.1.15,2013-01-04 01:31:00,
2013-01-03 20:34:00,36.5,34.4,30.20,North,355,0.0,-999.0,92,0.00,,,0.00,Wunderground v.1.15,2013-01-04 01:34:00,
2013-01-03 20:35:00,36.5,34.4,30.20,North,355,0.0,-999.0,92,0.00,,,0.00,Wunderground v.1.15,2013-01-04 01:35:00,
2013-01-03 20:36:00,36.5,34.4,30.20,North,355,0.0,-999.0,92,0.00,,,0.00,Wunderground v.1.15,2013-01-04 01:36:00,
2013-01-03 20:39:00,36.3,34.5,30.20,North,355,0.0,-999.0,93,0.00,,,0.00,Wunderground v.1.15,2013-01-04 01:39:00,
2013-01-03 20:40:00,36.3,34.5,30.20,North,355,0.0,-999.0,93,0.00,,,0.00,Wunderground v.1.15,2013-01-04 01:40:00,
2013-01-03 20:41:00,36.3,34.5,30.20,North,355,0.0,-999.0,93,0.00,,,0.00,Wunderground v.1.15,2013-01-04 01:41:00,
2013-01-03 20:45:00,36.1,34.3,30.20,North,355,0.0,-999.0,93,0.00,,,0.00,Wunderground v.1.15,2013-01-04 01:45:00,
2013-01-03 20:46:00,36.0,34.2,30.20,North,355,0.0,-999.0,93,0.00,,,0.00,Wunderground v.1.15,2013-01-04 01:46:00,
2013-01-03 20:50:00,35.7,33.9,30.20,North,355,0.0,-999.0,93,0.00,,,0.00,Wunderground v.1.15,2013-01-04 01:50:00,
2013-01-03 20:51:00,35.7,33.9,30.20,North,355,0.0,-999.0,93,0.00,,,0.00,Wunderground v.1.15,2013-01-04 01:51:00,
2013-01-03 20:55:00,35.6,33.8,30.20,North,355,0.0,-999.0,93,0.00,,,0.00,Wunderground v.1.15,2013-01-04 01:55:00,
2013-01-03 20:56:00,35.5,33.7,30.21,North,355,0.0,-999.0,93,0.00,,,0.00,Wunderground v.1.15,2013-01-04 01:56:00,
2013-01-03 21:01:00,35.4,33.6,30.21,North,355,0.0,-999.0,93,0.00,,,0.00,Wunderground v.1.15,2013-01-04 02:01:00,
2013-01-03 21:02:00,35.4,33.6,30.21,North,356,0.0,-999.0,93,0.00,,,0.00,Wunderground v.1.15,2013-01-04 02:02:00,
2013-01-03 21:06:00,35.2,33.4,30.21,North,355,0.0,-999.0,93,0.00,,,0.00,Wunderground v.1.15,2013-01-04 02:06:00,
2013-01-03 21:07:00,35.2,33.4,30.21,North,355,0.0,-999.0,93,0.00,,,0.00,Wunderground v.1.15,2013-01-04 02:07:00,
2013-01-03 21:11:00,35.0,33.2,30.21,North,356,0.0,-999.0,93,0.00,,,0.00,Wunderground v.1.15,2013-01-04 02:11:00,
2013-01-03 21:12:00,35.0,33.2,30.21,North,355,0.0,-999.0,93,0.00,,,0.00,Wunderground v.1.15,2013-01-04 02:12:00,
2013-01-03 21:16:00,34.8,33.2,30.21,North,355,0.0,-999.0,94,0.00,,,0.00,Wunderground v.1.15,2013-01-04 02:16:00,
2013-01-03 21:17:00,34.8,33.2,30.21,North,356,0.0,-999.0,94,0.00,,,0.00,Wunderground v.1.15,2013-01-04 02:17:00,
2013-01-03 21:18:00,34.8,33.2,30.21,North,355,0.0,-999.0,94,0.00,,,0.00,Wunderground v.1.15,2013-01-04 02:18:00,
2013-01-03 21:21:00,34.5,32.7,30.21,North,355,0.0,-999.0,93,0.00,,,0.00,Wunderground v.1.15,2013-01-04 02:21:00,
2013-01-03 21:22:00,34.5,32.7,30.21,North,355,0.0,-999.0,93,0.00,,,0.00,Wunderground v.1.15,2013-01-04 02:22:00,
2013-01-03 21:23:00,34.4,32.6,30.21,North,355,0.0,-999.0,93,0.00,,,0.00,Wunderground v.1.15,2013-01-04 02:23:00,
2013-01-03 21:26:00,34.3,32.8,30.21,North,356,0.0,-999.0,94,0.00,,,0.00,Wunderground v.1.15,2013-01-04 02:26:00,
2013-01-03 21:27:00,34.3,32.8,30.21,North,355,0.0,-999.0,94,0.00,,,0.00,Wunderground v.1.15,2013-01-04 02:27:00,
2013-01-03 21:28:00,34.3,32.8,30.21,North,356,0.0,-999.0,94,0.00,,,0.00,Wunderground v.1.15,2013-01-04 02:28:00,
2013-01-03 21:31:00,34.1,32.6,30.21,North,355,0.0,-999.0,94,0.00,,,0.00,Wunderground v.1.15,2013-01-04 02:31:00,
2013-01-03 21:32:00,34.1,32.6,30.21,North,355,0.0,-999.0,94,0.00,,,0.00,Wunderground v.1.15,2013-01-04 02:32:00,
2013-01-03 21:33:00,34.0,32.5,30.21,North,356,0.0,-999.0,94,0.00,,,0.00,Wunderground v.1.15,2013-01-04 02:33:00,
2013-01-03 21:37:00,33.7,32.2,30.21,North,355,0.0,-999.0,94,0.00,,,0.00,Wunderground v.1.15,2013-01-04 02:37:00,
2013-01-03 21:38:00,33.7,32.2,30.21,North,356,0.0,-999.0,94,0.00,,,0.00,Wunderground v.1.15,2013-01-04 02:38:00,
2013-01-03 21:42:00,33.6,32.1,30.21,North,355,0.0,-999.0,94,0.00,,,0.00,Wunderground v.1.15,2013-01-04 02:42:00,
2013-01-03 21:43:00,33.5,32.0,30.21,North,356,0.0,-999.0,94,0.00,,,0.00,Wunderground v.1.15,2013-01-04 02:43:00,
2013-01-03 21:47:00,33.5,32.2,30.21,North,356,0.0,-999.0,95,0.00,,,0.00,Wunderground v.1.15,2013-01-04 02:47:00,
2013-01-03 21:48:00,33.5,32.2,30.21,North,356,0.0,-999.0,95,0.00,,,0.00,Wunderground v.1.15,2013-01-04 02:48:00,
2013-01-03 21:52:00,33.3,31.8,30.21,North,356,0.0,-999.0,94,0.00,,,0.00,Wunderground v.1.15,2013-01-04 02:52:00,
2013-01-03 21:53:00,33.2,31.7,30.21,North,355,0.0,-999.0,94,0.00,,,0.00,Wunderground v.1.15,2013-01-04 02:53:00,
2013-01-03 21:54:00,33.2,31.7,30.21,North,355,0.0,-999.0,94,0.00,,,0.00,Wunderground v.1.15,2013-01-04 02:54:00,
2013-01-03 21:57:00,33.0,31.5,30.22,North,356,0.0,-999.0,94,0.00,,,0.00,Wunderground v.1.15,2013-01-04 02:57:00,
2013-01-03 21:58:00,33.0,31.5,30.21,North,355,0.0,-999.0,94,0.00,,,0.00,Wunderground v.1.15,2013-01-04 02:58:00,
2013-01-03 21:59:00,32.9,31.4,30.21,North,355,0.0,-999.0,94,0.00,,,0.00,Wunderground v.1.15,2013-01-04 02:59:00,
2013-01-03 22:02:00,32.9,31.6,30.21,North,356,0.0,-999.0,95,0.00,,,0.00,Wunderground v.1.15,2013-01-04 03:02:00,
2013-01-03 22:03:00,32.8,31.5,30.21,North,355,0.0,-999.0,95,0.00,,,0.00,Wunderground v.1.15,2013-01-04 03:03:00,
2013-01-03 22:04:00,32.9,31.6,30.21,North,356,0.0,-999.0,95,0.00,,,0.00,Wunderground v.1.15,2013-01-04 03:04:00,
2013-01-03 22:07:00,32.9,31.6,30.22,North,355,0.0,-999.0,95,0.00,,,0.00,Wunderground v.1.15,2013-01-04 03:07:00,
2013-01-03 22:08:00,32.9,31.6,30.22,North,356,0.0,-999.0,95,0.00,,,0.00,Wunderground v.1.15,2013-01-04 03:08:00,
2013-01-03 22:09:00,32.9,31.6,30.22,North,355,0.0,-999.0,95,0.00,,,0.00,Wunderground v.1.15,2013-01-04 03:09:00,
2013-01-03 22:12:00,32.9,31.6,30.21,North,355,0.0,-999.0,95,0.00,,,0.00,Wunderground v.1.15,2013-01-04 03:12:00,
2013-01-03 22:13:00,32.9,31.6,30.21,North,355,0.0,-999.0,95,0.00,,,0.00,Wunderground v.1.15,2013-01-04 03:13:00,
2013-01-03 22:14:00,32.8,31.5,30.21,North,355,0.0,-999.0,95,0.00,,,0.00,Wunderground v.1.15,2013-01-04 03:14:00,
2013-01-03 22:17:00,32.8,31.5,30.21,North,356,0.0,-999.0,95,0.00,,,0.00,Wunderground v.1.15,2013-01-04 03:17:00,
2013-01-03 22:18:00,32.7,31.4,30.21,North,355,0.0,-999.0,95,0.00,,,0.00,Wunderground v.1.15,2013-01-04 03:18:00,
2013-01-03 22:19:00,32.7,31.4,30.21,North,356,0.0,-999.0,95,0.00,,,0.00,Wunderground v.1.15,2013-01-04 03:19:00,
2013-01-03 22:22:00,32.5,31.2,30.21,North,355,0.0,-999.0,95,0.00,,,0.00,Wunderground v.1.15,2013-01-04 03:22:00,
2013-01-03 22:24:00,32.5,31.2,30.21,North,355,0.0,-999.0,95,0.00,,,0.00,Wunderground v.1.15,2013-01-04 03:24:00,
2013-01-03 22:28:00,32.3,31.0,30.21,North,356,0.0,-999.0,95,0.00,,,0.00,Wunderground v.1.15,2013-01-04 03:28:00,
2013-01-03 22:29:00,32.3,31.0,30.21,North,355,0.0,-999.0,95,0.00,,,0.00,Wunderground v.1.15,2013-01-04 03:29:00,
2013-01-03 22:33:00,32.3,31.0,30.21,North,356,0.0,-999.0,95,0.00,,,0.00,Wunderground v.1.15,2013-01-04 03:33:00,
2013-01-03 22:34:00,32.2,30.9,30.22,North,355,0.0,-999.0,95,0.00,,,0.00,Wunderground v.1.15,2013-01-04 03:34:00,
2013-01-03 22:35:00,32.1,30.8,30.22,North,356,0.0,-999.0,95,0.00,,,0.00,Wunderground v.1.15,2013-01-04 03:35:00,
2013-01-03 22:38:00,32.0,30.7,30.22,North,355,0.0,-999.0,95,0.00,,,0.00,Wunderground v.1.15,2013-01-04 03:38:00,
2013-01-03 22:39:00,32.0,30.7,30.22,North,356,0.0,-999.0,95,0.00,,,0.00,Wunderground v.1.15,2013-01-04 03:39:00,
2013-01-03 22:40:00,31.9,30.6,30.22,North,355,0.0,-999.0,95,0.00,,,0.00,Wunderground v.1.15,2013-01-04 03:40:00,
2013-01-03 22:44:00,31.8,30.5,30.22,North,356,0.0,-999.0,95,0.00,,,0.00,Wunderground v.1.15,2013-01-04 03:44:00,
2013-01-03 22:45:00,31.8,30.5,30.22,North,355,0.0,-999.0,95,0.00,,,0.00,Wunderground v.1.15,2013-01-04 03:45:00,
2013-01-03 22:49:00,31.7,30.4,30.22,North,355,0.0,-999.0,95,0.00,,,0.00,Wunderground v.1.15,2013-01-04 03:49:00,
2013-01-03 22:50:00,31.6,30.3,30.22,North,355,0.0,-999.0,95,0.00,,,0.00,Wunderground v.1.15,2013-01-04 03:50:00,
2013-01-03 22:54:00,31.5,30.2,30.22,North,356,0.0,-999.0,95,0.00,,,0.00,Wunderground v.1.15,2013-01-04 03:54:00,
2013-01-03 22:55:00,31.4,30.1,30.22,North,356,0.0,-999.0,95,0.00,,,0.00,Wunderground v.1.15,2013-01-04 03:55:00,
2013-01-03 22:59:00,31.3,30.0,30.22,North,356,0.0,-999.0,95,0.00,,,0.00,Wunderground v.1.15,2013-01-04 03:59:00,
2013-01-03 23:00:00,31.2,29.9,30.22,North,356,0.0,-999.0,95,0.00,,,0.00,Wunderground v.1.15,2013-01-04 04:00:00,
2013-01-03 23:01:00,31.2,29.9,30.22,North,356,0.0,-999.0,95,0.00,,,0.00,Wunderground v.1.15,2013-01-04 04:01:00,
2013-01-03 23:04:00,31.1,29.8,30.22,North,356,0.0,-999.0,95,0.00,,,0.00,Wunderground v.1.15,2013-01-04 04:04:00,
2013-01-03 23:05:00,31.0,29.7,30.22,North,356,0.0,-999.0,95,0.00,,,0.00,Wunderground v.1.15,2013-01-04 04:05:00,
2013-01-03 23:06:00,31.0,29.7,30.22,North,355,0.0,-999.0,95,0.00,,,0.00,Wunderground v.1.15,2013-01-04 04:06:00,
2013-01-03 23:09:00,31.0,29.7,30.22,North,355,0.0,-999.0,95,0.00,,,0.00,Wunderground v.1.15,2013-01-04 04:09:00,
2013-01-03 23:10:00,30.9,29.6,30.22,North,356,0.0,-999.0,95,0.00,,,0.00,Wunderground v.1.15,2013-01-04 04:10:00,
2013-01-03 23:11:00,30.9,29.6,30.22,North,356,0.0,-999.0,95,0.00,,,0.00,Wunderground v.1.15,2013-01-04 04:11:00,
2013-01-03 23:14:00,30.8,29.5,30.22,North,356,0.0,-999.0,95,0.00,,,0.00,Wunderground v.1.15,2013-01-04 04:14:00,
2013-01-03 23:15:00,30.8,29.5,30.22,North,356,0.0,-999.0,95,0.00,,,0.00,Wunderground v.1.15,2013-01-04 04:15:00,
2013-01-03 23:16:00,30.8,29.5,30.22,North,356,0.0,-999.0,95,0.00,,,0.00,Wunderground v.1.15,2013-01-04 04:16:00,
2013-01-03 23:19:00,30.7,29.4,30.22,North,356,0.0,-999.0,95,0.00,,,0.00,Wunderground v.1.15,2013-01-04 04:19:00,
2013-01-03 23:20:00,30.7,29.4,30.22,North,356,0.0,-999.0,95,0.00,,,0.00,Wunderground v.1.15,2013-01-04 04:20:00,
2013-01-03 23:21:00,30.7,29.4,30.22,North,356,0.0,-999.0,95,0.00,,,0.00,Wunderground v.1.15,2013-01-04 04:21:00,
2013-01-03 23:24:00,30.7,29.7,30.22,North,355,0.0,-999.0,96,0.00,,,0.00,Wunderground v.1.15,2013-01-04 04:24:00,
2013-01-03 23:26:00,30.6,29.6,30.22,North,356,0.0,-999.0,96,0.00,,,0.00,Wunderground v.1.15,2013-01-04 04:26:00,
2013-01-03 23:30:00,30.6,29.6,30.22,North,356,0.0,-999.0,96,0.00,,,0.00,Wunderground v.1.15,2013-01-04 04:30:00,
2013-01-03 23:31:00,30.5,29.5,30.22,North,356,0.0,-999.0,96,0.00,,,0.00,Wunderground v.1.15,2013-01-04 04:31:00,
2013-01-03 23:35:00,30.4,29.1,30.22,North,356,0.0,-999.0,95,0.00,,,0.00,Wunderground v.1.15,2013-01-04 04:35:00,
2013-01-03 23:36:00,30.3,29.0,30.22,North,356,0.0,-999.0,95,0.00,,,0.00,Wunderground v.1.15,2013-01-04 04:36:00,
2013-01-03 23:40:00,30.1,28.8,30.22,North,356,0.0,-999.0,95,0.00,,,0.00,Wunderground v.1.15,2013-01-04 04:40:00,
2013-01-03 23:41:00,30.1,28.8,30.22,North,356,0.0,-999.0,95,0.00,,,0.00,Wunderground v.1.15,2013-01-04 04:41:00,
2013-01-03 23:42:00,30.1,28.8,30.22,North,356,0.0,-999.0,95,0.00,,,0.00,Wunderground v.1.15,2013-01-04 04:42:00,
2013-01-03 23:45:00,30.0,28.7,30.22,North,355,0.0,-999.0,95,0.00,,,0.00,Wunderground v.1.15,2013-01-04 04:45:00,
2013-01-03 23:46:00,30.0,29.0,30.22,North,356,0.0,-999.0,96,0.00,,,0.00,Wunderground v.1.15,2013-01-04 04:46:00,
2013-01-03 23:50:00,30.0,29.0,30.22,North,355,0.0,-999.0,96,0.00,,,0.00,Wunderground v.1.15,2013-01-04 04:50:00,
2013-01-03 23:51:00,30.0,29.0,30.22,North,356,0.0,-999.0,96,0.00,,,0.00,Wunderground v.1.15,2013-01-04 04:51:00,
2013-01-03 23:52:00,30.1,29.1,30.22,North,356,0.0,-999.0,96,0.00,,,0.00,Wunderground v.1.15,2013-01-04 04:52:00,
2013-01-03 23:55:00,30.1,29.1,30.22,North,356,0.0,-999.0,96,0.00,,,0.00,Wunderground v.1.15,2013-01-04 04:55:00,
2013-01-03 23:56:00,30.1,29.1,30.22,North,356,0.0,-999.0,96,0.00,,,0.00,Wunderground v.1.15,2013-01-04 04:56:00,
2013-01-03 23:57:00,30.1,29.1,30.22,North,355,0.0,-999.0,96,0.00,,,0.00,Wunderground v.1.15,2013-01-04 04:57:00,